Wetterdaten: Freitag, 13.03.2026
Datum Zeit Temp. Aussen Temp. o. S. Temp +5cm Feuchte Auss Luftdruck Regen Sonnenschein Solar Windböen Empfang
13.03.2026 00:00 9,3 °C 8,3 °C 4,4 °C 77 % 1014,0 hPa 0,0 l/m² 0 min 0 W/m² 22,5 km/h (4 Bft) 95,65 %
13.03.2026 00:02 9,3 °C 8,3 °C 4,4 °C 77 % 1014,0 hPa 0,0 l/m² 0 min 0 W/m² 19,3 km/h (3 Bft) 94,44 %
13.03.2026 00:04 9,3 °C 8,3 °C 4,4 °C 76 % 1013,9 hPa 0,0 l/m² 0 min 0 W/m² 16,1 km/h (3 Bft) 95,83 %
13.03.2026 00:07 9,3 °C 8,3 °C 4,4 °C 76 % 1013,7 hPa 0,0 l/m² 0 min 0 W/m² 19,3 km/h (3 Bft) 97,18 %
13.03.2026 00:08 9,2 °C 8,3 °C 4,4 °C 76 % 1013,7 hPa 0,0 l/m² 0 min 0 W/m² 12,9 km/h (3 Bft) 91,67 %
13.03.2026 00:10 9,2 °C 8,3 °C 4,4 °C 76 % 1013,7 hPa 0,0 l/m² 0 min 0 W/m² 22,5 km/h (4 Bft) 97,87 %
13.03.2026 00:12 9,2 °C 8,3 °C 4,4 °C 76 % 1013,6 hPa 0,0 l/m² 0 min 0 W/m² 25,7 km/h (4 Bft) 100,00 %
13.03.2026 00:14 9,2 °C 8,3 °C 4,4 °C 76 % 1013,7 hPa 0,0 l/m² 0 min 0 W/m² 19,3 km/h (3 Bft) 100,00 %
13.03.2026 00:16 9,2 °C 8,3 °C 4,4 °C 76 % 1013,6 hPa 0,0 l/m² 0 min 0 W/m² 25,7 km/h (4 Bft) 100,00 %
13.03.2026 00:18 9,2 °C 8,3 °C 4,4 °C 76 % 1013,6 hPa 0,0 l/m² 0 min 0 W/m² 16,1 km/h (3 Bft) 100,00 %
13.03.2026 00:20 9,2 °C 8,3 °C 4,4 °C 76 % 1013,5 hPa 0,0 l/m² 0 min 0 W/m² 25,7 km/h (4 Bft) 100,00 %
13.03.2026 00:22 9,3 °C 8,3 °C 4,4 °C 76 % 1013,5 hPa 0,0 l/m² 0 min 0 W/m² 29,0 km/h (5 Bft) 97,87 %
13.03.2026 00:24 9,3 °C 8,3 °C 4,4 °C 76 % 1013,4 hPa 0,0 l/m² 0 min 0 W/m² 22,5 km/h (4 Bft) 100,00 %
13.03.2026 00:26 9,3 °C 8,3 °C 5,0 °C 76 % 1013,5 hPa 0,0 l/m² 0 min 0 W/m² 19,3 km/h (3 Bft) 100,00 %
13.03.2026 00:28 9,3 °C 8,3 °C 5,0 °C 76 % 1013,4 hPa 0,0 l/m² 0 min 0 W/m² 29,0 km/h (5 Bft) 100,00 %
13.03.2026 00:30 9,3 °C 8,3 °C 5,0 °C 76 % 1013,4 hPa 0,0 l/m² 0 min 0 W/m² 22,5 km/h (4 Bft) 100,00 %
13.03.2026 00:32 9,3 °C 8,3 °C 5,0 °C 76 % 1013,2 hPa 0,0 l/m² 0 min 0 W/m² 19,3 km/h (3 Bft) 100,00 %
13.03.2026 00:34 9,3 °C 8,3 °C 5,0 °C 76 % 1013,2 hPa 0,0 l/m² 0 min 0 W/m² 19,3 km/h (3 Bft) 100,00 %
13.03.2026 00:36 9,3 °C 8,3 °C 5,0 °C 76 % 1013,2 hPa 0,0 l/m² 0 min 0 W/m² 22,5 km/h (4 Bft) 100,00 %
13.03.2026 00:38 9,3 °C 8,3 °C 5,0 °C 76 % 1013,2 hPa 0,0 l/m² 0 min 0 W/m² 19,3 km/h (3 Bft) 100,00 %
13.03.2026 00:40 9,3 °C 8,3 °C 5,0 °C 76 % 1013,2 hPa 0,0 l/m² 0 min 0 W/m² 29,0 km/h (5 Bft) 100,00 %
13.03.2026 00:42 9,3 °C 8,3 °C 5,0 °C 76 % 1013,1 hPa 0,0 l/m² 0 min 0 W/m² 25,7 km/h (4 Bft) 97,87 %
13.03.2026 00:44 9,3 °C 8,3 °C 5,0 °C 75 % 1013,0 hPa 0,0 l/m² 0 min 0 W/m² 19,3 km/h (3 Bft) 100,00 %
13.03.2026 00:46 9,3 °C 8,3 °C 4,4 °C 75 % 1013,0 hPa 0,0 l/m² 0 min 0 W/m² 25,7 km/h (4 Bft) 100,00 %
13.03.2026 00:48 9,3 °C 8,3 °C 4,4 °C 75 % 1013,0 hPa 0,0 l/m² 0 min 0 W/m² 22,5 km/h (4 Bft) 100,00 %
13.03.2026 00:50 9,3 °C 8,3 °C 5,0 °C 75 % 1012,9 hPa 0,0 l/m² 0 min 0 W/m² 19,3 km/h (3 Bft) 97,87 %
13.03.2026 00:52 9,3 °C 8,3 °C 5,0 °C 76 % 1012,9 hPa 0,0 l/m² 0 min 0 W/m² 22,5 km/h (4 Bft) 97,87 %
13.03.2026 00:54 9,3 °C 8,3 °C 5,0 °C 75 % 1012,8 hPa 0,0 l/m² 0 min 0 W/m² 12,9 km/h (3 Bft) 95,74 %
13.03.2026 00:56 9,3 °C 8,3 °C 4,4 °C 76 % 1012,8 hPa 0,0 l/m² 0 min 0 W/m² 16,1 km/h (3 Bft) 97,87 %
13.03.2026 00:58 9,3 °C 8,3 °C 5,0 °C 75 % 1012,7 hPa 0,0 l/m² 0 min 0 W/m² 19,3 km/h (3 Bft) 97,83 %
13.03.2026 01:00 9,3 °C 8,3 °C 5,0 °C 75 % 1012,7 hPa 0,0 l/m² 0 min 0 W/m² 29,0 km/h (5 Bft) 97,87 %
13.03.2026 01:02 9,3 °C 8,3 °C 5,0 °C 75 % 1012,7 hPa 0,0 l/m² 0 min 0 W/m² 29,0 km/h (5 Bft) 97,87 %
13.03.2026 01:04 9,3 °C 8,3 °C 4,4 °C 75 % 1012,7 hPa 0,0 l/m² 0 min 0 W/m² 29,0 km/h (5 Bft) 95,83 %
13.03.2026 01:06 9,3 °C 8,3 °C 4,4 °C 76 % 1012,6 hPa 0,0 l/m² 0 min 0 W/m² 19,3 km/h (3 Bft) 95,74 %
13.03.2026 01:08 9,3 °C 8,3 °C 4,4 °C 76 % 1012,6 hPa 0,0 l/m² 0 min 0 W/m² 12,9 km/h (3 Bft) 95,65 %
13.03.2026 01:10 9,3 °C 8,3 °C 4,4 °C 76 % 1012,6 hPa 0,0 l/m² 0 min 0 W/m² 19,3 km/h (3 Bft) 97,87 %
13.03.2026 01:12 9,3 °C 8,3 °C 4,4 °C 76 % 1012,6 hPa 0,0 l/m² 0 min 0 W/m² 38,6 km/h (5 Bft) 95,74 %
13.03.2026 01:14 9,3 °C 8,3 °C 4,4 °C 76 % 1012,6 hPa 0,0 l/m² 0 min 0 W/m² 19,3 km/h (3 Bft) 97,87 %
13.03.2026 01:16 9,3 °C 8,3 °C 4,4 °C 76 % 1012,5 hPa 0,0 l/m² 0 min 0 W/m² 19,3 km/h (3 Bft) 53,19 %
13.03.2026 01:18 9,3 °C 8,3 °C 4,4 °C 76 % 1012,5 hPa 0,0 l/m² 0 min 0 W/m² 22,5 km/h (4 Bft) 97,87 %
13.03.2026 01:20 9,3 °C 8,3 °C 4,4 °C 76 % 1012,4 hPa 0,0 l/m² 0 min 0 W/m² 25,7 km/h (4 Bft) 95,65 %
13.03.2026 01:22 9,3 °C 8,3 °C 4,4 °C 76 % 1012,3 hPa 0,0 l/m² 0 min 0 W/m² 19,3 km/h (3 Bft) 97,87 %
13.03.2026 01:24 9,3 °C 8,3 °C 4,4 °C 76 % 1012,3 hPa 0,0 l/m² 0 min 0 W/m² 29,0 km/h (5 Bft) 97,87 %
13.03.2026 01:26 9,2 °C 8,3 °C 4,4 °C 76 % 1012,3 hPa 0,0 l/m² 0 min 0 W/m² 12,9 km/h (3 Bft) 97,87 %
13.03.2026 01:28 9,2 °C 8,3 °C 4,4 °C 76 % 1012,2 hPa 0,0 l/m² 0 min 0 W/m² 22,5 km/h (4 Bft) 97,87 %
13.03.2026 01:30 9,2 °C 8,3 °C 4,4 °C 76 % 1012,1 hPa 0,0 l/m² 0 min 0 W/m² 12,9 km/h (3 Bft) 97,87 %
13.03.2026 01:32 9,2 °C 8,3 °C 4,4 °C 76 % 1012,1 hPa 0,0 l/m² 0 min 0 W/m² 22,5 km/h (4 Bft) 95,65 %
13.03.2026 01:34 9,2 °C 8,3 °C 4,4 °C 76 % 1012,0 hPa 0,0 l/m² 0 min 0 W/m² 19,3 km/h (3 Bft) 95,74 %
13.03.2026 01:36 9,2 °C 8,3 °C 4,4 °C 76 % 1012,0 hPa 0,0 l/m² 0 min 0 W/m² 25,7 km/h (4 Bft) 95,74 %
13.03.2026 01:38 9,2 °C 8,3 °C 4,4 °C 76 % 1011,9 hPa 0,0 l/m² 0 min 0 W/m² 19,3 km/h (3 Bft) 93,62 %
13.03.2026 01:40 9,2 °C 8,3 °C 4,4 °C 76 % 1011,9 hPa 0,0 l/m² 0 min 0 W/m² 19,3 km/h (3 Bft) 95,74 %
13.03.2026 01:42 9,2 °C 8,3 °C 4,4 °C 76 % 1011,9 hPa 0,0 l/m² 0 min 0 W/m² 19,3 km/h (3 Bft) 97,87 %
13.03.2026 01:44 9,2 °C 8,3 °C 4,4 °C 76 % 1011,8 hPa 0,0 l/m² 0 min 0 W/m² 19,3 km/h (3 Bft) 97,83 %
13.03.2026 01:46 9,2 °C 8,3 °C 4,4 °C 76 % 1011,8 hPa 0,0 l/m² 0 min 0 W/m² 12,9 km/h (3 Bft) 95,74 %
13.03.2026 01:48 9,2 °C 8,3 °C 4,4 °C 76 % 1011,8 hPa 0,0 l/m² 0 min 0 W/m² 19,3 km/h (3 Bft) 97,87 %
13.03.2026 01:50 9,2 °C 8,3 °C 4,4 °C 76 % 1011,8 hPa 0,0 l/m² 0 min 0 W/m² 22,5 km/h (4 Bft) 95,74 %
13.03.2026 01:52 9,2 °C 8,3 °C 4,4 °C 76 % 1011,8 hPa 0,0 l/m² 0 min 0 W/m² 22,5 km/h (4 Bft) 95,74 %
13.03.2026 01:54 9,2 °C 8,3 °C 4,4 °C 76 % 1011,8 hPa 0,0 l/m² 0 min 0 W/m² 19,3 km/h (3 Bft) 97,87 %
13.03.2026 01:56 9,2 °C 8,3 °C 4,4 °C 76 % 1011,7 hPa 0,0 l/m² 0 min 0 W/m² 19,3 km/h (3 Bft) 97,83 %
13.03.2026 01:58 9,2 °C 8,3 °C 4,4 °C 76 % 1011,7 hPa 0,0 l/m² 0 min 0 W/m² 22,5 km/h (4 Bft) 95,74 %
13.03.2026 02:00 9,2 °C 8,3 °C 4,4 °C 76 % 1011,6 hPa 0,0 l/m² 0 min 0 W/m² 16,1 km/h (3 Bft) 93,62 %
13.03.2026 02:02 9,2 °C 8,3 °C 4,4 °C 76 % 1011,6 hPa 0,0 l/m² 0 min 0 W/m² 16,1 km/h (3 Bft) 93,62 %
13.03.2026 02:04 9,2 °C 8,3 °C 4,4 °C 76 % 1011,5 hPa 0,0 l/m² 0 min 0 W/m² 19,3 km/h (3 Bft) 97,92 %
13.03.2026 02:06 9,2 °C 8,3 °C 4,4 °C 76 % 1011,3 hPa 0,0 l/m² 0 min 0 W/m² 19,3 km/h (3 Bft) 95,74 %
13.03.2026 02:08 9,2 °C 8,3 °C 4,4 °C 76 % 1011,3 hPa 0,0 l/m² 0 min 0 W/m² 22,5 km/h (4 Bft) 97,83 %
13.03.2026 02:10 9,2 °C 8,3 °C 4,4 °C 76 % 1011,3 hPa 0,0 l/m² 0 min 0 W/m² 19,3 km/h (3 Bft) 97,62 %
13.03.2026 02:12 9,2 °C 8,3 °C 4,4 °C 76 % 1011,2 hPa 0,0 l/m² 0 min 0 W/m² 22,5 km/h (4 Bft) 97,87 %
13.03.2026 02:14 9,2 °C 8,3 °C 4,4 °C 76 % 1011,1 hPa 0,0 l/m² 0 min 0 W/m² 16,1 km/h (3 Bft) 98,31 %
13.03.2026 02:16 9,2 °C 8,3 °C 4,4 °C 76 % 1011,0 hPa 0,0 l/m² 0 min 0 W/m² 16,1 km/h (3 Bft) 97,14 %
13.03.2026 02:18 9,2 °C 8,3 °C 4,4 °C 76 % 1011,1 hPa 0,0 l/m² 0 min 0 W/m² 22,5 km/h (4 Bft) 97,87 %
13.03.2026 02:20 9,2 °C 8,3 °C 4,4 °C 77 % 1010,9 hPa 0,0 l/m² 0 min 0 W/m² 22,5 km/h (4 Bft) 97,87 %
13.03.2026 02:22 9,2 °C 8,3 °C 4,4 °C 77 % 1011,0 hPa 0,0 l/m² 0 min 0 W/m² 25,7 km/h (4 Bft) 98,28 %
13.03.2026 02:24 9,2 °C 8,3 °C 4,4 °C 77 % 1010,9 hPa 0,0 l/m² 0 min 0 W/m² 19,3 km/h (3 Bft) 97,14 %
13.03.2026 02:26 9,2 °C 8,3 °C 4,4 °C 77 % 1011,0 hPa 0,0 l/m² 0 min 0 W/m² 16,1 km/h (3 Bft) 97,87 %
13.03.2026 02:28 9,2 °C 8,3 °C 4,4 °C 77 % 1010,8 hPa 0,0 l/m² 0 min 0 W/m² 16,1 km/h (3 Bft) 97,87 %
13.03.2026 02:30 9,2 °C 8,3 °C 4,4 °C 77 % 1010,8 hPa 0,0 l/m² 0 min 0 W/m² 12,9 km/h (3 Bft) 97,87 %
13.03.2026 02:32 9,2 °C 8,3 °C 4,4 °C 77 % 1010,8 hPa 0,0 l/m² 0 min 0 W/m² 25,7 km/h (4 Bft) 95,65 %
13.03.2026 02:34 9,2 °C 8,3 °C 4,4 °C 77 % 1010,8 hPa 0,0 l/m² 0 min 0 W/m² 25,7 km/h (4 Bft) 97,87 %
13.03.2026 02:36 9,2 °C 8,3 °C 4,4 °C 77 % 1010,6 hPa 0,0 l/m² 0 min 0 W/m² 19,3 km/h (3 Bft) 97,87 %
13.03.2026 02:38 9,2 °C 8,3 °C 4,4 °C 77 % 1010,6 hPa 0,0 l/m² 0 min 0 W/m² 16,1 km/h (3 Bft) 100,00 %
13.03.2026 02:40 9,1 °C 8,3 °C 4,4 °C 77 % 1010,6 hPa 0,0 l/m² 0 min 0 W/m² 19,3 km/h (3 Bft) 97,87 %
13.03.2026 02:42 9,1 °C 8,3 °C 4,4 °C 77 % 1010,5 hPa 0,0 l/m² 0 min 0 W/m² 19,3 km/h (3 Bft) 97,87 %
13.03.2026 02:44 9,1 °C 8,3 °C 4,4 °C 77 % 1010,4 hPa 0,0 l/m² 0 min 0 W/m² 25,7 km/h (4 Bft) 97,83 %
13.03.2026 02:46 9,1 °C 8,3 °C 4,4 °C 77 % 1010,4 hPa 0,0 l/m² 0 min 0 W/m² 22,5 km/h (4 Bft) 97,87 %
13.03.2026 02:48 9,1 °C 8,3 °C 4,4 °C 77 % 1010,4 hPa 0,0 l/m² 0 min 0 W/m² 12,9 km/h (3 Bft) 100,00 %
13.03.2026 02:50 9,1 °C 8,3 °C 4,4 °C 77 % 1010,4 hPa 0,0 l/m² 0 min 0 W/m² 22,5 km/h (4 Bft) 97,87 %
13.03.2026 02:52 9,1 °C 7,8 °C 4,4 °C 77 % 1010,3 hPa 0,0 l/m² 0 min 0 W/m² 19,3 km/h (3 Bft) 100,00 %
13.03.2026 02:54 9,1 °C 7,8 °C 4,4 °C 77 % 1010,3 hPa 0,0 l/m² 0 min 0 W/m² 19,3 km/h (3 Bft) 100,00 %
13.03.2026 02:56 9,0 °C 7,8 °C 4,4 °C 78 % 1010,2 hPa 0,0 l/m² 0 min 0 W/m² 16,1 km/h (3 Bft) 100,00 %
13.03.2026 02:58 9,0 °C 7,8 °C 4,4 °C 78 % 1010,2 hPa 0,0 l/m² 0 min 0 W/m² 22,5 km/h (4 Bft) 100,00 %
13.03.2026 03:00 9,0 °C 7,8 °C 4,4 °C 78 % 1010,2 hPa 0,0 l/m² 0 min 0 W/m² 12,9 km/h (3 Bft) 100,00 %
13.03.2026 03:02 8,9 °C 7,8 °C 4,4 °C 78 % 1010,1 hPa 0,0 l/m² 0 min 0 W/m² 12,9 km/h (3 Bft) 100,00 %
13.03.2026 03:04 8,9 °C 7,8 °C 4,4 °C 78 % 1010,1 hPa 0,0 l/m² 0 min 0 W/m² 19,3 km/h (3 Bft) 100,00 %
13.03.2026 03:06 8,9 °C 7,8 °C 4,4 °C 78 % 1010,1 hPa 0,0 l/m² 0 min 0 W/m² 19,3 km/h (3 Bft) 100,00 %
13.03.2026 03:08 8,9 °C 7,8 °C 4,4 °C 78 % 1010,0 hPa 0,0 l/m² 0 min 0 W/m² 12,9 km/h (3 Bft) 100,00 %
13.03.2026 03:10 8,9 °C 7,8 °C 3,9 °C 78 % 1010,0 hPa 0,0 l/m² 0 min 0 W/m² 9,7 km/h (2 Bft) 100,00 %
13.03.2026 03:12 8,8 °C 7,8 °C 3,9 °C 78 % 1010,0 hPa 0,0 l/m² 0 min 0 W/m² 19,3 km/h (3 Bft) 100,00 %
13.03.2026 03:14 8,8 °C 7,8 °C 3,9 °C 78 % 1010,0 hPa 0,0 l/m² 0 min 0 W/m² 29,0 km/h (5 Bft) 100,00 %
13.03.2026 03:16 8,8 °C 7,8 °C 3,9 °C 79 % 1009,9 hPa 0,0 l/m² 0 min 0 W/m² 19,3 km/h (3 Bft) 100,00 %
13.03.2026 03:18 8,8 °C 7,8 °C 3,9 °C 78 % 1009,8 hPa 0,0 l/m² 0 min 0 W/m² 16,1 km/h (3 Bft) 100,00 %
13.03.2026 03:20 8,8 °C 7,8 °C 3,9 °C 79 % 1009,8 hPa 0,0 l/m² 0 min 0 W/m² 16,1 km/h (3 Bft) 100,00 %
13.03.2026 03:22 8,8 °C 7,8 °C 3,9 °C 79 % 1009,7 hPa 0,0 l/m² 0 min 0 W/m² 16,1 km/h (3 Bft) 100,00 %
13.03.2026 03:24 8,8 °C 7,8 °C 3,9 °C 79 % 1009,7 hPa 0,0 l/m² 0 min 0 W/m² 19,3 km/h (3 Bft) 97,87 %
13.03.2026 03:26 8,7 °C 7,8 °C 3,9 °C 79 % 1009,7 hPa 0,0 l/m² 0 min 0 W/m² 19,3 km/h (3 Bft) 97,87 %
13.03.2026 03:28 8,7 °C 7,8 °C 3,9 °C 79 % 1009,7 hPa 0,0 l/m² 0 min 0 W/m² 19,3 km/h (3 Bft) 97,83 %
13.03.2026 03:30 8,7 °C 7,8 °C 3,9 °C 79 % 1009,6 hPa 0,0 l/m² 0 min 0 W/m² 16,1 km/h (3 Bft) 97,87 %
13.03.2026 03:32 8,7 °C 7,8 °C 3,9 °C 79 % 1009,5 hPa 0,0 l/m² 0 min 0 W/m² 16,1 km/h (3 Bft) 97,87 %
13.03.2026 03:34 8,7 °C 7,8 °C 3,9 °C 79 % 1009,5 hPa 0,0 l/m² 0 min 0 W/m² 12,9 km/h (3 Bft) 97,87 %
13.03.2026 03:36 8,7 °C 7,8 °C 3,9 °C 79 % 1009,4 hPa 0,0 l/m² 0 min 0 W/m² 16,1 km/h (3 Bft) 97,87 %
13.03.2026 03:38 8,6 °C 7,8 °C 3,9 °C 79 % 1009,4 hPa 0,0 l/m² 0 min 0 W/m² 12,9 km/h (3 Bft) 97,87 %
13.03.2026 03:40 8,6 °C 7,8 °C 3,9 °C 79 % 1009,3 hPa 0,0 l/m² 0 min 0 W/m² 12,9 km/h (3 Bft) 97,83 %
13.03.2026 03:42 8,6 °C 7,8 °C 3,9 °C 79 % 1009,3 hPa 0,0 l/m² 0 min 0 W/m² 19,3 km/h (3 Bft) 97,87 %
13.03.2026 03:44 8,6 °C 7,8 °C 3,9 °C 80 % 1009,2 hPa 0,0 l/m² 0 min 0 W/m² 12,9 km/h (3 Bft) 97,87 %
13.03.2026 03:46 8,6 °C 7,8 °C 3,9 °C 80 % 1009,1 hPa 0,0 l/m² 0 min 0 W/m² 12,9 km/h (3 Bft) 95,74 %
13.03.2026 03:48 8,6 °C 7,2 °C 3,9 °C 79 % 1009,0 hPa 0,0 l/m² 0 min 0 W/m² 22,5 km/h (4 Bft) 95,74 %
13.03.2026 03:50 8,5 °C 7,2 °C 3,9 °C 80 % 1009,0 hPa 0,0 l/m² 0 min 0 W/m² 19,3 km/h (3 Bft) 95,74 %
13.03.2026 03:52 8,5 °C 7,2 °C 3,9 °C 80 % 1008,9 hPa 0,0 l/m² 0 min 0 W/m² 22,5 km/h (4 Bft) 95,65 %
13.03.2026 03:54 8,4 °C 7,2 °C 3,9 °C 80 % 1008,9 hPa 0,0 l/m² 0 min 0 W/m² 22,5 km/h (4 Bft) 97,87 %
13.03.2026 03:56 8,4 °C 7,2 °C 3,9 °C 80 % 1008,9 hPa 0,0 l/m² 0 min 0 W/m² 16,1 km/h (3 Bft) 95,74 %
13.03.2026 03:58 8,4 °C 7,2 °C 3,9 °C 80 % 1008,8 hPa 0,0 l/m² 0 min 0 W/m² 25,7 km/h (4 Bft) 95,74 %
13.03.2026 04:00 8,4 °C 7,2 °C 3,9 °C 80 % 1008,8 hPa 0,0 l/m² 0 min 0 W/m² 19,3 km/h (3 Bft) 97,87 %
13.03.2026 04:02 8,3 °C 7,2 °C 3,9 °C 80 % 1008,7 hPa 0,0 l/m² 0 min 0 W/m² 12,9 km/h (3 Bft) 100,00 %
13.03.2026 04:04 8,3 °C 7,2 °C 3,9 °C 80 % 1008,7 hPa 0,0 l/m² 0 min 0 W/m² 16,1 km/h (3 Bft) 95,83 %
13.03.2026 04:06 8,3 °C 7,2 °C 3,9 °C 80 % 1008,6 hPa 0,0 l/m² 0 min 0 W/m² 16,1 km/h (3 Bft) 100,00 %
13.03.2026 04:08 8,3 °C 7,2 °C 3,9 °C 80 % 1008,6 hPa 0,0 l/m² 0 min 0 W/m² 22,5 km/h (4 Bft) 95,45 %
13.03.2026 04:10 8,3 °C 7,2 °C 3,3 °C 81 % 1008,5 hPa 0,0 l/m² 0 min 0 W/m² 12,9 km/h (3 Bft) 97,92 %
13.03.2026 04:12 8,3 °C 7,2 °C 3,3 °C 81 % 1008,5 hPa 0,0 l/m² 0 min 0 W/m² 16,1 km/h (3 Bft) 97,87 %
13.03.2026 04:14 8,2 °C 7,2 °C 3,9 °C 81 % 1008,4 hPa 0,0 l/m² 0 min 0 W/m² 16,1 km/h (3 Bft) 93,62 %
13.03.2026 04:16 8,2 °C 7,2 °C 3,9 °C 81 % 1008,4 hPa 0,0 l/m² 0 min 0 W/m² 12,9 km/h (3 Bft) 95,65 %
13.03.2026 04:18 8,2 °C 7,2 °C 3,9 °C 81 % 1008,4 hPa 0,0 l/m² 0 min 0 W/m² 19,3 km/h (3 Bft) 95,74 %
13.03.2026 04:20 8,2 °C 7,2 °C 3,9 °C 81 % 1008,4 hPa 0,0 l/m² 0 min 0 W/m² 12,9 km/h (3 Bft) 97,87 %
13.03.2026 04:22 8,2 °C 7,2 °C 3,9 °C 81 % 1008,4 hPa 0,0 l/m² 0 min 0 W/m² 12,9 km/h (3 Bft) 97,87 %
13.03.2026 04:24 8,2 °C 7,2 °C 3,9 °C 81 % 1008,4 hPa 0,0 l/m² 0 min 0 W/m² 16,1 km/h (3 Bft) 95,74 %
13.03.2026 04:26 8,2 °C 7,2 °C 3,9 °C 81 % 1008,3 hPa 0,0 l/m² 0 min 0 W/m² 22,5 km/h (4 Bft) 93,62 %
13.03.2026 04:28 8,2 °C 7,2 °C 3,9 °C 81 % 1008,3 hPa 0,0 l/m² 0 min 0 W/m² 19,3 km/h (3 Bft) 89,13 %
13.03.2026 04:30 8,2 °C 7,2 °C 3,9 °C 81 % 1008,3 hPa 0,0 l/m² 0 min 0 W/m² 22,5 km/h (4 Bft) 93,62 %
13.03.2026 04:32 8,2 °C 7,2 °C 3,9 °C 82 % 1008,3 hPa 0,0 l/m² 0 min 0 W/m² 12,9 km/h (3 Bft) 95,74 %
13.03.2026 04:34 8,2 °C 7,2 °C 3,9 °C 82 % 1008,1 hPa 0,0 l/m² 0 min 0 W/m² 16,1 km/h (3 Bft) 95,74 %
13.03.2026 04:36 8,2 °C 7,2 °C 3,9 °C 82 % 1008,1 hPa 0,0 l/m² 0 min 0 W/m² 19,3 km/h (3 Bft) 97,87 %
13.03.2026 04:38 8,2 °C 7,8 °C 3,9 °C 82 % 1008,0 hPa 0,0 l/m² 0 min 0 W/m² 25,7 km/h (4 Bft) 97,87 %
13.03.2026 04:40 8,3 °C 7,8 °C 3,9 °C 82 % 1008,0 hPa 0,0 l/m² 0 min 0 W/m² 16,1 km/h (3 Bft) 97,83 %
13.03.2026 04:42 8,3 °C 7,8 °C 3,9 °C 82 % 1007,9 hPa 0,0 l/m² 0 min 0 W/m² 19,3 km/h (3 Bft) 97,87 %
13.03.2026 04:44 8,3 °C 7,8 °C 3,9 °C 82 % 1008,0 hPa 0,0 l/m² 0 min 0 W/m² 19,3 km/h (3 Bft) 95,74 %
13.03.2026 04:46 8,3 °C 7,8 °C 3,9 °C 82 % 1008,0 hPa 0,0 l/m² 0 min 0 W/m² 22,5 km/h (4 Bft) 97,87 %
13.03.2026 04:48 8,3 °C 7,8 °C 3,9 °C 82 % 1007,9 hPa 0,0 l/m² 0 min 0 W/m² 19,3 km/h (3 Bft) 95,74 %
13.03.2026 04:50 8,3 °C 7,8 °C 3,9 °C 82 % 1008,0 hPa 0,0 l/m² 0 min 0 W/m² 22,5 km/h (4 Bft) 97,87 %
13.03.2026 04:52 8,3 °C 7,8 °C 3,9 °C 81 % 1008,0 hPa 0,0 l/m² 0 min 0 W/m² 12,9 km/h (3 Bft) 95,65 %
13.03.2026 04:54 8,3 °C 7,8 °C 3,9 °C 81 % 1008,0 hPa 0,0 l/m² 0 min 0 W/m² 19,3 km/h (3 Bft) 97,87 %
13.03.2026 04:56 8,3 °C 7,8 °C 3,9 °C 81 % 1007,9 hPa 0,0 l/m² 0 min 0 W/m² 29,0 km/h (5 Bft) 97,87 %
13.03.2026 04:58 8,4 °C 7,8 °C 3,9 °C 81 % 1007,9 hPa 0,0 l/m² 0 min 0 W/m² 12,9 km/h (3 Bft) 95,74 %
13.03.2026 05:00 8,4 °C 7,8 °C 3,9 °C 81 % 1008,0 hPa 0,0 l/m² 0 min 0 W/m² 16,1 km/h (3 Bft) 97,87 %
13.03.2026 05:02 8,4 °C 7,8 °C 3,9 °C 81 % 1008,0 hPa 0,0 l/m² 0 min 0 W/m² 22,5 km/h (4 Bft) 100,00 %
13.03.2026 05:04 8,4 °C 7,8 °C 3,9 °C 81 % 1007,9 hPa 0,0 l/m² 0 min 0 W/m² 19,3 km/h (3 Bft) 97,87 %
13.03.2026 05:06 8,4 °C 7,8 °C 3,9 °C 81 % 1007,9 hPa 0,0 l/m² 0 min 0 W/m² 19,3 km/h (3 Bft) 97,87 %
13.03.2026 05:08 8,4 °C 7,8 °C 3,9 °C 81 % 1007,8 hPa 0,0 l/m² 0 min 0 W/m² 16,1 km/h (3 Bft) 97,37 %
13.03.2026 05:10 8,5 °C 7,8 °C 3,9 °C 81 % 1007,8 hPa 0,0 l/m² 0 min 0 W/m² 16,1 km/h (3 Bft) 100,00 %
13.03.2026 05:12 8,5 °C 7,8 °C 3,9 °C 81 % 1007,8 hPa 0,0 l/m² 0 min 0 W/m² 16,1 km/h (3 Bft) 100,00 %
13.03.2026 05:14 8,5 °C 7,8 °C 3,9 °C 81 % 1007,7 hPa 0,0 l/m² 0 min 0 W/m² 19,3 km/h (3 Bft) 100,00 %
13.03.2026 05:16 8,5 °C 7,8 °C 3,9 °C 81 % 1007,7 hPa 0,0 l/m² 0 min 0 W/m² 6,4 km/h (2 Bft) 97,83 %
13.03.2026 05:18 8,5 °C 7,8 °C 3,9 °C 81 % 1007,7 hPa 0,0 l/m² 0 min 0 W/m² 19,3 km/h (3 Bft) 97,87 %
13.03.2026 05:20 8,5 °C 7,8 °C 3,9 °C 81 % 1007,7 hPa 0,0 l/m² 0 min 0 W/m² 16,1 km/h (3 Bft) 97,87 %
13.03.2026 05:22 8,5 °C 7,8 °C 3,9 °C 81 % 1007,6 hPa 0,0 l/m² 0 min 0 W/m² 12,9 km/h (3 Bft) 97,87 %
13.03.2026 05:24 8,5 °C 7,8 °C 3,9 °C 81 % 1007,6 hPa 0,0 l/m² 0 min 0 W/m² 19,3 km/h (3 Bft) 95,74 %
13.03.2026 05:26 8,5 °C 7,8 °C 3,9 °C 81 % 1007,6 hPa 0,0 l/m² 0 min 0 W/m² 12,9 km/h (3 Bft) 97,87 %
13.03.2026 05:28 8,5 °C 7,2 °C 3,9 °C 81 % 1007,6 hPa 0,0 l/m² 0 min 0 W/m² 9,7 km/h (2 Bft) 97,83 %
13.03.2026 05:30 8,4 °C 7,2 °C 3,9 °C 81 % 1007,6 hPa 0,0 l/m² 0 min 0 W/m² 16,1 km/h (3 Bft) 95,74 %
13.03.2026 05:32 8,4 °C 7,2 °C 3,9 °C 81 % 1007,6 hPa 0,0 l/m² 0 min 0 W/m² 16,1 km/h (3 Bft) 97,87 %
13.03.2026 05:34 8,4 °C 7,8 °C 3,9 °C 81 % 1007,5 hPa 0,0 l/m² 0 min 0 W/m² 16,1 km/h (3 Bft) 97,87 %
13.03.2026 05:36 8,4 °C 7,2 °C 3,9 °C 81 % 1007,6 hPa 0,0 l/m² 0 min 0 W/m² 12,9 km/h (3 Bft) 95,74 %
13.03.2026 05:38 8,4 °C 7,8 °C 3,9 °C 82 % 1007,4 hPa 0,0 l/m² 0 min 0 W/m² 12,9 km/h (3 Bft) 97,87 %
13.03.2026 05:40 8,4 °C 7,8 °C 3,9 °C 82 % 1007,5 hPa 0,0 l/m² 0 min 0 W/m² 12,9 km/h (3 Bft) 97,83 %
13.03.2026 05:42 8,4 °C 7,8 °C 3,9 °C 82 % 1007,4 hPa 0,0 l/m² 0 min 0 W/m² 12,9 km/h (3 Bft) 95,74 %
13.03.2026 05:44 8,4 °C 7,8 °C 3,9 °C 82 % 1007,4 hPa 0,0 l/m² 0 min 0 W/m² 12,9 km/h (3 Bft) 97,87 %
13.03.2026 05:46 8,4 °C 7,8 °C 3,9 °C 82 % 1007,5 hPa 0,0 l/m² 0 min 0 W/m² 12,9 km/h (3 Bft) 97,87 %
13.03.2026 05:48 8,4 °C 7,8 °C 3,9 °C 82 % 1007,4 hPa 0,0 l/m² 0 min 0 W/m² 16,1 km/h (3 Bft) 97,87 %
13.03.2026 05:50 8,4 °C 7,8 °C 3,9 °C 82 % 1007,4 hPa 0,0 l/m² 0 min 0 W/m² 16,1 km/h (3 Bft) 100,00 %
13.03.2026 05:52 8,4 °C 7,8 °C 3,9 °C 82 % 1007,4 hPa 0,0 l/m² 0 min 0 W/m² 12,9 km/h (3 Bft) 100,00 %
13.03.2026 05:54 8,4 °C 7,8 °C 3,9 °C 82 % 1007,5 hPa 0,0 l/m² 0 min 0 W/m² 19,3 km/h (3 Bft) 100,00 %
13.03.2026 05:56 8,4 °C 7,8 °C 3,9 °C 82 % 1007,4 hPa 0,0 l/m² 0 min 0 W/m² 16,1 km/h (3 Bft) 100,00 %
13.03.2026 05:58 8,4 °C 7,8 °C 3,9 °C 83 % 1007,4 hPa 0,0 l/m² 0 min 0 W/m² 12,9 km/h (3 Bft) 100,00 %
13.03.2026 06:00 8,4 °C 7,8 °C 3,9 °C 83 % 1007,3 hPa 0,0 l/m² 0 min 0 W/m² 16,1 km/h (3 Bft) 100,00 %
13.03.2026 06:02 8,4 °C 7,8 °C 3,9 °C 83 % 1007,3 hPa 0,0 l/m² 0 min 0 W/m² 19,3 km/h (3 Bft) 100,00 %
13.03.2026 06:04 8,5 °C 7,8 °C 3,9 °C 83 % 1007,3 hPa 0,0 l/m² 0 min 0 W/m² 12,9 km/h (3 Bft) 100,00 %
13.03.2026 06:07 8,5 °C 7,8 °C 3,9 °C 83 % 1007,3 hPa 0,0 l/m² 0 min 0 W/m² 19,3 km/h (3 Bft) 97,40 %
13.03.2026 06:10 8,5 °C 7,8 °C 3,9 °C 83 % 1007,2 hPa 0,0 l/m² 0 min 0 W/m² 9,7 km/h (2 Bft) 97,50 %
13.03.2026 06:12 8,6 °C 7,8 °C 3,9 °C 83 % 1007,3 hPa 0,0 l/m² 0 min 0 W/m² 16,1 km/h (3 Bft) 96,67 %
13.03.2026 06:14 8,6 °C 7,8 °C 4,4 °C 83 % 1007,2 hPa 0,0 l/m² 0 min 0 W/m² 19,3 km/h (3 Bft) 100,00 %
13.03.2026 06:16 8,6 °C 7,8 °C 4,4 °C 83 % 1007,2 hPa 0,0 l/m² 0 min 0 W/m² 16,1 km/h (3 Bft) 100,00 %
13.03.2026 06:18 8,6 °C 7,8 °C 4,4 °C 83 % 1007,2 hPa 0,0 l/m² 0 min 0 W/m² 12,9 km/h (3 Bft) 100,00 %
13.03.2026 06:20 8,6 °C 7,8 °C 4,4 °C 83 % 1007,2 hPa 0,0 l/m² 0 min 0 W/m² 6,4 km/h (2 Bft) 100,00 %
13.03.2026 06:22 8,6 °C 8,3 °C 4,4 °C 83 % 1007,2 hPa 0,0 l/m² 0 min 0 W/m² 16,1 km/h (3 Bft) 95,74 %
13.03.2026 06:24 8,7 °C 8,3 °C 4,4 °C 83 % 1007,2 hPa 0,0 l/m² 0 min 0 W/m² 16,1 km/h (3 Bft) 100,00 %
13.03.2026 06:26 8,7 °C 8,3 °C 4,4 °C 83 % 1007,1 hPa 0,0 l/m² 0 min 0 W/m² 16,1 km/h (3 Bft) 100,00 %
13.03.2026 06:28 8,7 °C 8,3 °C 4,4 °C 83 % 1007,1 hPa 0,0 l/m² 0 min 0 W/m² 16,1 km/h (3 Bft) 100,00 %
13.03.2026 06:30 8,7 °C 8,3 °C 4,4 °C 83 % 1007,1 hPa 0,0 l/m² 0 min 0 W/m² 12,9 km/h (3 Bft) 100,00 %
13.03.2026 06:32 8,8 °C 8,3 °C 4,4 °C 83 % 1007,1 hPa 0,0 l/m² 0 min 0 W/m² 12,9 km/h (3 Bft) 100,00 %
13.03.2026 06:34 8,8 °C 8,3 °C 4,4 °C 83 % 1007,1 hPa 0,0 l/m² 0 min 0 W/m² 19,3 km/h (3 Bft) 100,00 %
13.03.2026 06:36 8,8 °C 8,3 °C 4,4 °C 83 % 1007,0 hPa 0,0 l/m² 0 min 0 W/m² 16,1 km/h (3 Bft) 95,74 %
13.03.2026 06:38 8,8 °C 8,3 °C 4,4 °C 83 % 1007,0 hPa 0,0 l/m² 0 min 0 W/m² 16,1 km/h (3 Bft) 100,00 %
13.03.2026 06:40 8,8 °C 8,3 °C 4,4 °C 83 % 1007,0 hPa 0,0 l/m² 0 min 0 W/m² 12,9 km/h (3 Bft) 100,00 %
13.03.2026 06:42 8,8 °C 8,3 °C 4,4 °C 83 % 1006,9 hPa 0,0 l/m² 0 min 0 W/m² 12,9 km/h (3 Bft) 100,00 %
13.03.2026 06:44 8,8 °C 8,3 °C 4,4 °C 83 % 1006,9 hPa 0,0 l/m² 0 min 0 W/m² 12,9 km/h (3 Bft) 97,87 %
13.03.2026 06:46 8,9 °C 8,3 °C 4,4 °C 83 % 1006,8 hPa 0,0 l/m² 0 min 0 W/m² 16,1 km/h (3 Bft) 97,87 %
13.03.2026 06:48 8,9 °C 8,3 °C 4,4 °C 83 % 1006,8 hPa 0,0 l/m² 0 min 0 W/m² 12,9 km/h (3 Bft) 93,62 %
13.03.2026 06:50 8,9 °C 8,3 °C 4,4 °C 84 % 1006,7 hPa 0,0 l/m² 0 min 0 W/m² 16,1 km/h (3 Bft) 95,65 %
13.03.2026 06:52 8,9 °C 8,3 °C 4,4 °C 84 % 1006,6 hPa 0,0 l/m² 0 min 0 W/m² 16,1 km/h (3 Bft) 91,49 %
13.03.2026 06:54 8,9 °C 8,3 °C 4,4 °C 84 % 1006,5 hPa 0,0 l/m² 0 min 3 W/m² 22,5 km/h (4 Bft) 95,74 %
13.03.2026 06:56 8,9 °C 8,3 °C 4,4 °C 84 % 1006,5 hPa 0,0 l/m² 0 min 5 W/m² 19,3 km/h (3 Bft) 93,62 %
13.03.2026 06:58 9,0 °C 8,3 °C 4,4 °C 84 % 1006,5 hPa 0,0 l/m² 0 min 5 W/m² 6,4 km/h (2 Bft) 95,74 %
13.03.2026 07:00 9,0 °C 8,3 °C 4,4 °C 84 % 1006,5 hPa 0,0 l/m² 0 min 7 W/m² 19,3 km/h (3 Bft) 95,74 %
13.03.2026 07:02 9,0 °C 8,3 °C 4,4 °C 84 % 1006,5 hPa 0,0 l/m² 0 min 9 W/m² 16,1 km/h (3 Bft) 95,65 %
13.03.2026 07:04 9,0 °C 8,3 °C 4,4 °C 84 % 1006,4 hPa 0,0 l/m² 0 min 10 W/m² 16,1 km/h (3 Bft) 95,92 %
13.03.2026 07:06 9,0 °C 8,3 °C 4,4 °C 84 % 1006,4 hPa 0,0 l/m² 0 min 12 W/m² 19,3 km/h (3 Bft) 91,53 %
13.03.2026 07:08 9,0 °C 8,3 °C 4,4 °C 84 % 1006,4 hPa 0,0 l/m² 0 min 14 W/m² 6,4 km/h (2 Bft) 97,14 %
13.03.2026 07:10 9,1 °C 8,3 °C 4,4 °C 84 % 1006,4 hPa 0,0 l/m² 0 min 17 W/m² 19,3 km/h (3 Bft) 90,74 %
13.03.2026 07:12 9,2 °C 8,9 °C 5,0 °C 85 % 1006,4 hPa 0,0 l/m² 0 min 19 W/m² 32,2 km/h (5 Bft) 91,49 %
13.03.2026 07:14 9,3 °C 9,4 °C 5,0 °C 85 % 1006,2 hPa 0,0 l/m² 2 min 23 W/m² 25,7 km/h (4 Bft) 91,30 %
13.03.2026 07:16 9,4 °C 9,4 °C 5,0 °C 85 % 1006,3 hPa 0,0 l/m² 2 min 26 W/m² 29,0 km/h (5 Bft) 93,62 %
13.03.2026 07:18 9,6 °C 9,4 °C 5,6 °C 85 % 1006,2 hPa 0,0 l/m² 2 min 29 W/m² 25,7 km/h (4 Bft) 91,49 %
13.03.2026 07:20 9,6 °C 9,4 °C 5,6 °C 84 % 1006,2 hPa 0,0 l/m² 2 min 30 W/m² 29,0 km/h (5 Bft) 93,62 %
13.03.2026 07:22 9,7 °C 9,4 °C 5,6 °C 84 % 1006,1 hPa 0,0 l/m² 0 min 31 W/m² 29,0 km/h (5 Bft) 93,62 %
13.03.2026 07:24 9,8 °C 9,4 °C 5,6 °C 84 % 1006,1 hPa 0,0 l/m² 0 min 32 W/m² 22,5 km/h (4 Bft) 89,36 %
13.03.2026 07:26 9,9 °C 9,4 °C 5,6 °C 84 % 1006,2 hPa 0,0 l/m² 0 min 33 W/m² 32,2 km/h (5 Bft) 95,65 %
13.03.2026 07:28 10,1 °C 10,0 °C 5,6 °C 83 % 1006,2 hPa 0,0 l/m² 0 min 33 W/m² 25,7 km/h (4 Bft) 93,62 %
13.03.2026 07:30 10,1 °C 10,0 °C 5,6 °C 83 % 1006,1 hPa 0,0 l/m² 0 min 36 W/m² 32,2 km/h (5 Bft) 93,62 %
13.03.2026 07:32 10,2 °C 10,0 °C 5,6 °C 83 % 1006,1 hPa 0,0 l/m² 0 min 39 W/m² 45,1 km/h (6 Bft) 97,87 %
13.03.2026 07:34 10,2 °C 10,0 °C 5,6 °C 83 % 1006,0 hPa 0,0 l/m² 0 min 41 W/m² 38,6 km/h (5 Bft) 95,74 %
13.03.2026 07:36 10,3 °C 10,0 °C 5,6 °C 82 % 1006,0 hPa 0,0 l/m² 0 min 47 W/m² 32,2 km/h (5 Bft) 95,74 %
13.03.2026 07:38 10,3 °C 10,0 °C 6,1 °C 82 % 1005,9 hPa 0,0 l/m² 0 min 52 W/m² 35,4 km/h (5 Bft) 97,83 %
13.03.2026 07:40 10,4 °C 10,0 °C 6,1 °C 82 % 1006,1 hPa 0,0 l/m² 0 min 54 W/m² 29,0 km/h (5 Bft) 97,87 %
13.03.2026 07:42 10,4 °C 10,0 °C 6,1 °C 82 % 1005,9 hPa 0,0 l/m² 0 min 52 W/m² 29,0 km/h (5 Bft) 97,87 %
13.03.2026 07:44 10,5 °C 10,0 °C 6,1 °C 82 % 1005,9 hPa 0,0 l/m² 0 min 55 W/m² 25,7 km/h (4 Bft) 97,87 %
13.03.2026 07:46 10,6 °C 10,0 °C 6,1 °C 82 % 1006,0 hPa 0,0 l/m² 0 min 55 W/m² 25,7 km/h (4 Bft) 100,00 %
13.03.2026 07:48 10,6 °C 10,0 °C 6,1 °C 81 % 1006,0 hPa 0,0 l/m² 0 min 52 W/m² 22,5 km/h (4 Bft) 100,00 %
13.03.2026 07:50 10,6 °C 10,0 °C 6,1 °C 81 % 1005,9 hPa 0,0 l/m² 0 min 53 W/m² 64,4 km/h (8 Bft) 100,00 %
13.03.2026 07:52 10,7 °C 10,6 °C 6,1 °C 81 % 1005,9 hPa 0,0 l/m² 0 min 53 W/m² 25,7 km/h (4 Bft) 100,00 %
13.03.2026 07:54 10,7 °C 10,6 °C 6,1 °C 81 % 1006,0 hPa 0,0 l/m² 0 min 53 W/m² 35,4 km/h (5 Bft) 100,00 %
13.03.2026 07:56 10,7 °C 10,6 °C 6,1 °C 81 % 1006,0 hPa 0,0 l/m² 0 min 54 W/m² 38,6 km/h (5 Bft) 97,87 %
13.03.2026 07:58 10,8 °C 10,6 °C 6,1 °C 81 % 1006,0 hPa 0,0 l/m² 0 min 55 W/m² 22,5 km/h (4 Bft) 100,00 %
13.03.2026 08:00 10,8 °C 10,6 °C 6,1 °C 81 % 1005,9 hPa 0,0 l/m² 0 min 55 W/m² 32,2 km/h (5 Bft) 100,00 %
13.03.2026 08:02 10,8 °C 10,6 °C 6,1 °C 81 % 1006,0 hPa 0,0 l/m² 0 min 53 W/m² 25,7 km/h (4 Bft) 95,74 %
13.03.2026 08:04 10,8 °C 10,6 °C 6,1 °C 81 % 1006,0 hPa 0,0 l/m² 0 min 49 W/m² 25,7 km/h (4 Bft) 97,62 %
13.03.2026 08:06 10,9 °C 10,6 °C 6,1 °C 81 % 1006,1 hPa 0,0 l/m² 0 min 47 W/m² 19,3 km/h (3 Bft) 100,00 %
13.03.2026 08:08 10,9 °C 10,6 °C 6,1 °C 81 % 1006,0 hPa 0,0 l/m² 0 min 45 W/m² 35,4 km/h (5 Bft) 100,00 %
13.03.2026 08:10 10,9 °C 10,6 °C 6,1 °C 80 % 1006,0 hPa 0,0 l/m² 0 min 46 W/m² 35,4 km/h (5 Bft) 100,00 %
13.03.2026 08:12 10,9 °C 10,6 °C 6,1 °C 80 % 1006,0 hPa 0,0 l/m² 0 min 46 W/m² 38,6 km/h (5 Bft) 97,87 %
13.03.2026 08:14 10,9 °C 10,6 °C 6,1 °C 80 % 1005,9 hPa 0,0 l/m² 0 min 44 W/m² 35,4 km/h (5 Bft) 100,00 %
13.03.2026 08:16 10,9 °C 10,6 °C 6,1 °C 80 % 1006,0 hPa 0,0 l/m² 0 min 43 W/m² 29,0 km/h (5 Bft) 100,00 %
13.03.2026 08:18 10,9 °C 10,6 °C 6,1 °C 80 % 1005,9 hPa 0,0 l/m² 0 min 43 W/m² 29,0 km/h (5 Bft) 100,00 %
13.03.2026 08:20 10,9 °C 10,6 °C 6,1 °C 80 % 1005,9 hPa 0,0 l/m² 0 min 41 W/m² 22,5 km/h (4 Bft) 100,00 %
13.03.2026 08:22 10,9 °C 10,6 °C 6,1 °C 80 % 1006,0 hPa 0,0 l/m² 0 min 37 W/m² 22,5 km/h (4 Bft) 100,00 %
13.03.2026 08:24 10,9 °C 10,6 °C 6,1 °C 80 % 1005,9 hPa 0,0 l/m² 0 min 37 W/m² 38,6 km/h (5 Bft) 100,00 %
13.03.2026 08:26 10,9 °C 10,6 °C 6,1 °C 80 % 1005,9 hPa 0,0 l/m² 0 min 39 W/m² 29,0 km/h (5 Bft) 97,83 %
13.03.2026 08:28 11,0 °C 10,6 °C 6,1 °C 80 % 1005,8 hPa 0,0 l/m² 0 min 39 W/m² 22,5 km/h (4 Bft) 100,00 %
13.03.2026 08:30 11,0 °C 10,6 °C 6,1 °C 80 % 1005,8 hPa 0,0 l/m² 0 min 39 W/m² 25,7 km/h (4 Bft) 100,00 %
13.03.2026 08:32 11,0 °C 10,6 °C 6,7 °C 80 % 1005,8 hPa 0,0 l/m² 0 min 39 W/m² 29,0 km/h (5 Bft) 100,00 %
13.03.2026 08:34 11,0 °C 10,6 °C 6,7 °C 80 % 1005,8 hPa 0,0 l/m² 0 min 42 W/m² 29,0 km/h (5 Bft) 100,00 %
13.03.2026 08:36 11,0 °C 10,6 °C 6,7 °C 80 % 1005,7 hPa 0,0 l/m² 0 min 45 W/m² 29,0 km/h (5 Bft) 95,74 %
13.03.2026 08:38 11,0 °C 10,6 °C 6,7 °C 80 % 1005,7 hPa 0,0 l/m² 0 min 49 W/m² 22,5 km/h (4 Bft) 100,00 %
13.03.2026 08:40 11,1 °C 10,6 °C 6,7 °C 80 % 1005,8 hPa 0,0 l/m² 0 min 48 W/m² 22,5 km/h (4 Bft) 97,87 %
13.03.2026 08:42 11,1 °C 10,6 °C 6,7 °C 81 % 1005,7 hPa 0,0 l/m² 0 min 47 W/m² 35,4 km/h (5 Bft) 100,00 %
13.03.2026 08:44 11,1 °C 10,6 °C 6,7 °C 80 % 1005,7 hPa 0,0 l/m² 0 min 47 W/m² 41,8 km/h (6 Bft) 100,00 %
13.03.2026 08:46 11,1 °C 10,6 °C 6,7 °C 80 % 1005,8 hPa 0,0 l/m² 0 min 48 W/m² 35,4 km/h (5 Bft) 100,00 %
13.03.2026 08:48 11,1 °C 10,6 °C 6,7 °C 80 % 1005,7 hPa 0,0 l/m² 0 min 55 W/m² 35,4 km/h (5 Bft) 100,00 %
13.03.2026 08:50 11,1 °C 10,6 °C 6,7 °C 80 % 1005,7 hPa 0,0 l/m² 0 min 63 W/m² 41,8 km/h (6 Bft) 100,00 %
13.03.2026 08:52 11,1 °C 10,6 °C 6,7 °C 80 % 1005,7 hPa 0,0 l/m² 0 min 69 W/m² 29,0 km/h (5 Bft) 100,00 %
13.03.2026 08:54 11,2 °C 10,6 °C 6,7 °C 80 % 1005,6 hPa 0,0 l/m² 0 min 73 W/m² 32,2 km/h (5 Bft) 95,74 %
13.03.2026 08:56 11,2 °C 10,6 °C 6,7 °C 80 % 1005,7 hPa 0,0 l/m² 0 min 84 W/m² 41,8 km/h (6 Bft) 95,74 %
13.03.2026 08:58 11,2 °C 11,1 °C 6,7 °C 80 % 1005,7 hPa 0,0 l/m² 0 min 85 W/m² 41,8 km/h (6 Bft) 97,87 %
13.03.2026 09:00 11,2 °C 11,1 °C 6,7 °C 80 % 1005,7 hPa 0,0 l/m² 0 min 85 W/m² 35,4 km/h (5 Bft) 100,00 %
13.03.2026 09:02 11,3 °C 11,1 °C 6,7 °C 80 % 1005,8 hPa 0,0 l/m² 0 min 76 W/m² 35,4 km/h (5 Bft) 100,00 %
13.03.2026 09:04 11,3 °C 11,1 °C 6,7 °C 80 % 1005,6 hPa 0,0 l/m² 0 min 71 W/m² 35,4 km/h (5 Bft) 100,00 %
13.03.2026 09:06 11,3 °C 11,1 °C 6,7 °C 80 % 1005,8 hPa 0,0 l/m² 0 min 64 W/m² 35,4 km/h (5 Bft) 98,31 %
13.03.2026 09:08 11,3 °C 11,1 °C 6,7 °C 80 % 1005,8 hPa 0,0 l/m² 0 min 58 W/m² 35,4 km/h (5 Bft) 97,22 %
13.03.2026 09:10 11,3 °C 10,6 °C 6,7 °C 80 % 1005,8 hPa 0,0 l/m² 0 min 54 W/m² 41,8 km/h (6 Bft) 97,92 %
13.03.2026 09:12 11,3 °C 10,6 °C 6,7 °C 80 % 1005,7 hPa 0,0 l/m² 0 min 51 W/m² 25,7 km/h (4 Bft) 97,83 %
13.03.2026 09:14 11,4 °C 10,6 °C 6,7 °C 80 % 1005,7 hPa 0,0 l/m² 0 min 47 W/m² 51,5 km/h (7 Bft) 97,96 %
13.03.2026 09:16 11,4 °C 11,1 °C 6,7 °C 80 % 1005,7 hPa 0,0 l/m² 0 min 50 W/m² 19,3 km/h (3 Bft) 97,87 %
13.03.2026 09:18 11,4 °C 11,1 °C 6,7 °C 80 % 1005,7 hPa 0,0 l/m² 0 min 52 W/m² 25,7 km/h (4 Bft) 97,87 %
13.03.2026 09:20 11,4 °C 11,1 °C 6,7 °C 80 % 1005,7 hPa 0,0 l/m² 0 min 51 W/m² 35,4 km/h (5 Bft) 97,83 %
13.03.2026 09:22 11,4 °C 11,1 °C 6,7 °C 80 % 1005,7 hPa 0,0 l/m² 0 min 55 W/m² 48,3 km/h (6 Bft) 95,74 %
13.03.2026 09:24 11,4 °C 11,1 °C 7,2 °C 80 % 1005,6 hPa 0,0 l/m² 0 min 61 W/m² 32,2 km/h (5 Bft) 95,74 %
13.03.2026 09:26 11,5 °C 11,1 °C 7,2 °C 80 % 1005,6 hPa 0,0 l/m² 0 min 69 W/m² 45,1 km/h (6 Bft) 97,87 %
13.03.2026 09:28 11,5 °C 11,1 °C 7,2 °C 80 % 1005,6 hPa 0,0 l/m² 0 min 73 W/m² 22,5 km/h (4 Bft) 97,87 %
13.03.2026 09:30 11,5 °C 11,1 °C 7,2 °C 80 % 1005,7 hPa 0,0 l/m² 0 min 76 W/m² 38,6 km/h (5 Bft) 95,74 %
13.03.2026 09:32 11,6 °C 11,1 °C 7,2 °C 80 % 1005,5 hPa 0,0 l/m² 0 min 83 W/m² 38,6 km/h (5 Bft) 95,65 %
13.03.2026 09:34 11,6 °C 11,1 °C 7,2 °C 80 % 1005,4 hPa 0,0 l/m² 0 min 84 W/m² 48,3 km/h (6 Bft) 93,62 %
13.03.2026 09:36 11,6 °C 11,1 °C 7,2 °C 80 % 1005,3 hPa 0,0 l/m² 0 min 79 W/m² 32,2 km/h (5 Bft) 93,62 %
13.03.2026 09:38 11,6 °C 11,1 °C 7,2 °C 80 % 1005,3 hPa 0,0 l/m² 0 min 64 W/m² 54,7 km/h (7 Bft) 91,49 %
13.03.2026 09:40 11,6 °C 11,1 °C 7,2 °C 80 % 1005,5 hPa 0,0 l/m² 0 min 53 W/m² 35,4 km/h (5 Bft) 95,74 %
13.03.2026 09:42 11,7 °C 11,1 °C 7,2 °C 80 % 1005,3 hPa 0,0 l/m² 0 min 53 W/m² 32,2 km/h (5 Bft) 93,48 %
13.03.2026 09:44 11,7 °C 11,1 °C 7,2 °C 80 % 1005,4 hPa 0,0 l/m² 0 min 57 W/m² 32,2 km/h (5 Bft) 93,62 %
13.03.2026 09:46 11,7 °C 11,1 °C 7,2 °C 80 % 1005,3 hPa 0,0 l/m² 0 min 55 W/m² 41,8 km/h (6 Bft) 93,62 %
13.03.2026 09:48 11,7 °C 11,1 °C 7,2 °C 80 % 1005,2 hPa 0,0 l/m² 0 min 53 W/m² 22,5 km/h (4 Bft) 95,74 %
13.03.2026 09:50 11,7 °C 11,1 °C 7,2 °C 80 % 1005,2 hPa 0,0 l/m² 0 min 49 W/m² 38,6 km/h (5 Bft) 93,62 %
13.03.2026 09:52 11,7 °C 11,1 °C 7,2 °C 80 % 1005,3 hPa 0,0 l/m² 0 min 52 W/m² 45,1 km/h (6 Bft) 95,74 %
13.03.2026 09:54 11,7 °C 11,1 °C 7,2 °C 80 % 1005,3 hPa 0,0 l/m² 0 min 51 W/m² 48,3 km/h (6 Bft) 93,48 %
13.03.2026 09:56 11,7 °C 11,1 °C 7,2 °C 80 % 1005,2 hPa 0,0 l/m² 0 min 54 W/m² 29,0 km/h (5 Bft) 95,74 %
13.03.2026 09:58 11,7 °C 11,1 °C 7,2 °C 80 % 1005,4 hPa 0,0 l/m² 0 min 58 W/m² 32,2 km/h (5 Bft) 95,74 %
13.03.2026 10:00 11,7 °C 11,1 °C 7,2 °C 80 % 1005,4 hPa 0,0 l/m² 0 min 67 W/m² 35,4 km/h (5 Bft) 95,74 %
13.03.2026 10:02 11,7 °C 11,1 °C 7,2 °C 80 % 1005,2 hPa 0,0 l/m² 0 min 75 W/m² 32,2 km/h (5 Bft) 91,49 %
13.03.2026 10:04 11,7 °C 11,1 °C 7,2 °C 80 % 1005,2 hPa 0,0 l/m² 0 min 78 W/m² 35,4 km/h (5 Bft) 91,67 %
13.03.2026 10:06 11,7 °C 11,1 °C 7,2 °C 80 % 1005,2 hPa 0,0 l/m² 0 min 74 W/m² 38,6 km/h (5 Bft) 95,74 %
13.03.2026 10:08 11,7 °C 11,1 °C 7,2 °C 80 % 1005,2 hPa 0,0 l/m² 0 min 69 W/m² 41,8 km/h (6 Bft) 95,74 %
13.03.2026 10:10 11,7 °C 11,1 °C 7,2 °C 80 % 1005,2 hPa 0,0 l/m² 0 min 67 W/m² 35,4 km/h (5 Bft) 97,83 %
13.03.2026 10:12 11,7 °C 11,1 °C 7,2 °C 80 % 1005,5 hPa 0,0 l/m² 0 min 85 W/m² 57,9 km/h (7 Bft) 95,74 %
13.03.2026 10:14 11,7 °C 10,6 °C 6,7 °C 80 % 1005,4 hPa 0,0 l/m² 0 min 104 W/m² 54,7 km/h (7 Bft) 95,74 %
13.03.2026 10:16 11,7 °C 10,6 °C 6,7 °C 81 % 1005,2 hPa 0,0 l/m² 0 min 104 W/m² 29,0 km/h (5 Bft) 97,87 %
13.03.2026 10:18 11,7 °C 11,1 °C 6,7 °C 81 % 1005,2 hPa 0,0 l/m² 0 min 84 W/m² 45,1 km/h (6 Bft) 91,49 %
13.03.2026 10:20 11,7 °C 11,1 °C 7,2 °C 81 % 1005,4 hPa 0,0 l/m² 0 min 88 W/m² 51,5 km/h (7 Bft) 97,87 %
13.03.2026 10:22 11,7 °C 10,6 °C 6,7 °C 81 % 1005,2 hPa 0,0 l/m² 0 min 127 W/m² 38,6 km/h (5 Bft) 97,83 %
13.03.2026 10:24 11,7 °C 10,6 °C 6,7 °C 81 % 1005,3 hPa 0,0 l/m² 0 min 167 W/m² 54,7 km/h (7 Bft) 100,00 %
13.03.2026 10:26 11,7 °C 11,1 °C 6,7 °C 82 % 1005,4 hPa 0,0 l/m² 0 min 184 W/m² 32,2 km/h (5 Bft) 97,87 %
13.03.2026 10:28 11,6 °C 11,1 °C 6,7 °C 83 % 1005,2 hPa 0,0 l/m² 0 min 168 W/m² 35,4 km/h (5 Bft) 100,00 %
13.03.2026 10:30 11,6 °C 11,1 °C 7,2 °C 83 % 1005,3 hPa 0,0 l/m² 0 min 155 W/m² 48,3 km/h (6 Bft) 100,00 %
13.03.2026 10:32 11,6 °C 11,1 °C 7,2 °C 83 % 1005,2 hPa 0,0 l/m² 0 min 139 W/m² 32,2 km/h (5 Bft) 97,83 %
13.03.2026 10:34 11,6 °C 11,1 °C 7,2 °C 83 % 1005,3 hPa 0,0 l/m² 0 min 124 W/m² 35,4 km/h (5 Bft) 97,87 %
13.03.2026 10:36 11,6 °C 11,1 °C 7,2 °C 83 % 1005,2 hPa 0,0 l/m² 0 min 112 W/m² 35,4 km/h (5 Bft) 97,87 %
13.03.2026 10:38 11,6 °C 11,1 °C 6,7 °C 83 % 1005,3 hPa 0,0 l/m² 0 min 110 W/m² 25,7 km/h (4 Bft) 100,00 %
13.03.2026 10:40 11,6 °C 10,6 °C 6,7 °C 83 % 1005,3 hPa 0,0 l/m² 0 min 116 W/m² 38,6 km/h (5 Bft) 97,87 %
13.03.2026 10:42 11,6 °C 10,0 °C 6,1 °C 84 % 1005,3 hPa 0,0 l/m² 0 min 114 W/m² 35,4 km/h (5 Bft) 100,00 %
13.03.2026 10:44 11,5 °C 9,4 °C 6,1 °C 84 % 1005,3 hPa 0,0 l/m² 0 min 95 W/m² 38,6 km/h (5 Bft) 100,00 %
13.03.2026 10:46 11,4 °C 9,4 °C 5,6 °C 85 % 1005,3 hPa 0,0 l/m² 0 min 82 W/m² 41,8 km/h (6 Bft) 100,00 %
13.03.2026 10:48 11,3 °C 9,4 °C 5,6 °C 85 % 1005,4 hPa 0,0 l/m² 0 min 76 W/m² 41,8 km/h (6 Bft) 97,87 %
13.03.2026 10:50 11,2 °C 9,4 °C 5,6 °C 86 % 1005,2 hPa 0,0 l/m² 0 min 69 W/m² 29,0 km/h (5 Bft) 100,00 %
13.03.2026 10:52 11,2 °C 8,9 °C 5,0 °C 86 % 1005,3 hPa 0,0 l/m² 0 min 65 W/m² 32,2 km/h (5 Bft) 97,87 %
13.03.2026 10:54 11,1 °C 8,9 °C 5,0 °C 87 % 1005,2 hPa 0,0 l/m² 0 min 75 W/m² 54,7 km/h (7 Bft) 100,00 %
13.03.2026 10:56 11,0 °C 8,9 °C 5,0 °C 87 % 1005,2 hPa 0,0 l/m² 0 min 86 W/m² 22,5 km/h (4 Bft) 97,83 %
13.03.2026 10:58 10,9 °C 8,9 °C 5,0 °C 88 % 1005,4 hPa 0,0 l/m² 0 min 92 W/m² 32,2 km/h (5 Bft) 100,00 %
13.03.2026 11:00 10,9 °C 8,9 °C 5,0 °C 88 % 1005,3 hPa 0,2 l/m² 0 min 101 W/m² 16,1 km/h (3 Bft) 100,00 %
13.03.2026 11:02 10,8 °C 8,9 °C 5,0 °C 89 % 1005,3 hPa 0,0 l/m² 0 min 119 W/m² 32,2 km/h (5 Bft) 97,87 %
13.03.2026 11:04 10,8 °C 8,9 °C 5,0 °C 89 % 1005,3 hPa 0,0 l/m² 0 min 147 W/m² 38,6 km/h (5 Bft) 97,87 %
13.03.2026 11:06 10,7 °C 8,9 °C 5,0 °C 89 % 1005,2 hPa 0,0 l/m² 0 min 166 W/m² 38,6 km/h (5 Bft) 97,87 %
13.03.2026 11:08 10,7 °C 9,4 °C 5,6 °C 90 % 1005,2 hPa 0,0 l/m² 0 min 162 W/m² 25,7 km/h (4 Bft) 97,87 %
13.03.2026 11:10 10,7 °C 9,4 °C 5,0 °C 90 % 1005,2 hPa 0,0 l/m² 0 min 162 W/m² 29,0 km/h (5 Bft) 97,87 %
13.03.2026 11:12 10,6 °C 9,4 °C 5,6 °C 90 % 1005,2 hPa 0,0 l/m² 0 min 162 W/m² 38,6 km/h (5 Bft) 97,87 %
13.03.2026 11:14 10,6 °C 9,4 °C 5,6 °C 91 % 1005,1 hPa 0,0 l/m² 0 min 152 W/m² 29,0 km/h (5 Bft) 97,87 %
13.03.2026 11:16 10,6 °C 9,4 °C 5,6 °C 91 % 1005,2 hPa 0,0 l/m² 0 min 146 W/m² 35,4 km/h (5 Bft) 97,87 %
13.03.2026 11:18 10,6 °C 9,4 °C 5,6 °C 91 % 1005,1 hPa 0,0 l/m² 0 min 160 W/m² 19,3 km/h (3 Bft) 97,87 %
13.03.2026 11:20 10,6 °C 9,4 °C 5,6 °C 91 % 1005,1 hPa 0,0 l/m² 0 min 162 W/m² 35,4 km/h (5 Bft) 97,83 %
13.03.2026 11:22 10,5 °C 9,4 °C 5,6 °C 91 % 1005,1 hPa 0,0 l/m² 0 min 144 W/m² 16,1 km/h (3 Bft) 97,87 %
13.03.2026 11:24 10,5 °C 9,4 °C 5,6 °C 92 % 1005,1 hPa 0,0 l/m² 0 min 126 W/m² 22,5 km/h (4 Bft) 97,87 %
13.03.2026 11:26 10,5 °C 9,4 °C 5,6 °C 92 % 1005,1 hPa 0,0 l/m² 0 min 130 W/m² 32,2 km/h (5 Bft) 97,87 %
13.03.2026 11:28 10,5 °C 9,4 °C 5,6 °C 92 % 1005,0 hPa 0,2 l/m² 0 min 124 W/m² 25,7 km/h (4 Bft) 97,87 %
13.03.2026 11:30 10,4 °C 9,4 °C 5,6 °C 92 % 1005,0 hPa 0,0 l/m² 0 min 114 W/m² 25,7 km/h (4 Bft) 93,62 %
13.03.2026 11:32 10,4 °C 9,4 °C 5,6 °C 92 % 1005,0 hPa 0,0 l/m² 0 min 97 W/m² 32,2 km/h (5 Bft) 95,65 %
13.03.2026 11:34 10,4 °C 8,9 °C 5,0 °C 93 % 1005,0 hPa 0,0 l/m² 0 min 85 W/m² 35,4 km/h (5 Bft) 97,87 %
13.03.2026 11:36 10,4 °C 8,9 °C 5,0 °C 92 % 1005,0 hPa 0,0 l/m² 0 min 77 W/m² 32,2 km/h (5 Bft) 97,87 %
13.03.2026 11:38 10,3 °C 8,9 °C 5,0 °C 92 % 1005,0 hPa 0,0 l/m² 0 min 74 W/m² 32,2 km/h (5 Bft) 100,00 %
13.03.2026 11:40 10,3 °C 8,9 °C 5,0 °C 92 % 1005,0 hPa 0,0 l/m² 0 min 78 W/m² 35,4 km/h (5 Bft) 97,87 %
13.03.2026 11:42 10,3 °C 8,9 °C 5,0 °C 93 % 1005,1 hPa 0,2 l/m² 0 min 78 W/m² 35,4 km/h (5 Bft) 100,00 %
13.03.2026 11:44 10,3 °C 8,9 °C 5,0 °C 93 % 1005,0 hPa 0,0 l/m² 0 min 77 W/m² 22,5 km/h (4 Bft) 100,00 %
13.03.2026 11:46 10,3 °C 8,9 °C 5,0 °C 93 % 1005,0 hPa 0,2 l/m² 0 min 75 W/m² 29,0 km/h (5 Bft) 100,00 %
13.03.2026 11:48 10,3 °C 8,9 °C 5,0 °C 93 % 1005,0 hPa 0,0 l/m² 0 min 67 W/m² 41,8 km/h (6 Bft) 100,00 %
13.03.2026 11:50 10,3 °C 8,9 °C 5,0 °C 93 % 1004,9 hPa 0,0 l/m² 0 min 61 W/m² 25,7 km/h (4 Bft) 100,00 %
13.03.2026 11:52 10,3 °C 8,9 °C 5,0 °C 93 % 1004,9 hPa 0,0 l/m² 0 min 55 W/m² 35,4 km/h (5 Bft) 100,00 %
13.03.2026 11:54 10,3 °C 8,9 °C 5,0 °C 93 % 1004,9 hPa 0,0 l/m² 0 min 55 W/m² 22,5 km/h (4 Bft) 100,00 %
13.03.2026 11:56 10,3 °C 8,9 °C 5,0 °C 93 % 1004,9 hPa 0,2 l/m² 0 min 71 W/m² 22,5 km/h (4 Bft) 100,00 %
13.03.2026 11:58 10,3 °C 8,9 °C 5,0 °C 93 % 1004,9 hPa 0,0 l/m² 0 min 83 W/m² 25,7 km/h (4 Bft) 100,00 %
13.03.2026 12:00 10,2 °C 8,9 °C 5,0 °C 93 % 1004,9 hPa 0,0 l/m² 0 min 92 W/m² 22,5 km/h (4 Bft) 100,00 %
13.03.2026 12:02 10,3 °C 8,9 °C 5,0 °C 93 % 1004,9 hPa 0,0 l/m² 0 min 102 W/m² 32,2 km/h (5 Bft) 100,00 %
13.03.2026 12:04 10,3 °C 8,9 °C 5,0 °C 94 % 1004,9 hPa 0,0 l/m² 0 min 110 W/m² 19,3 km/h (3 Bft) 100,00 %
13.03.2026 12:07 10,3 °C 9,4 °C 5,6 °C 94 % 1004,9 hPa 0,2 l/m² 0 min 119 W/m² 19,3 km/h (3 Bft) 97,30 %
13.03.2026 12:10 10,3 °C 9,4 °C 5,6 °C 94 % 1004,8 hPa 0,0 l/m² 0 min 128 W/m² 16,1 km/h (3 Bft) 97,51 %
13.03.2026 12:12 10,4 °C 9,4 °C 5,6 °C 94 % 1004,8 hPa 0,0 l/m² 0 min 128 W/m² 19,3 km/h (3 Bft) 100,00 %
13.03.2026 12:14 10,4 °C 9,4 °C 5,6 °C 94 % 1004,8 hPa 0,0 l/m² 0 min 149 W/m² 29,0 km/h (5 Bft) 95,74 %
13.03.2026 12:16 10,4 °C 9,4 °C 5,6 °C 94 % 1004,8 hPa 0,0 l/m² 0 min 164 W/m² 16,1 km/h (3 Bft) 97,87 %
13.03.2026 12:18 10,5 °C 9,4 °C 5,6 °C 94 % 1004,8 hPa 0,0 l/m² 0 min 153 W/m² 25,7 km/h (4 Bft) 100,00 %
13.03.2026 12:20 10,5 °C 9,4 °C 5,6 °C 94 % 1004,7 hPa 0,0 l/m² 0 min 143 W/m² 35,4 km/h (5 Bft) 95,74 %
13.03.2026 12:22 10,6 °C 9,4 °C 5,6 °C 94 % 1004,7 hPa 0,0 l/m² 0 min 136 W/m² 19,3 km/h (3 Bft) 93,62 %
13.03.2026 12:24 10,6 °C 10,0 °C 5,6 °C 94 % 1004,6 hPa 0,0 l/m² 0 min 134 W/m² 16,1 km/h (3 Bft) 93,48 %
13.03.2026 12:26 10,6 °C 10,0 °C 5,6 °C 94 % 1004,7 hPa 0,0 l/m² 0 min 122 W/m² 38,6 km/h (5 Bft) 95,74 %
13.03.2026 12:28 10,6 °C 10,0 °C 5,6 °C 94 % 1004,7 hPa 0,0 l/m² 0 min 117 W/m² 29,0 km/h (5 Bft) 95,74 %
13.03.2026 12:30 10,6 °C 10,0 °C 5,6 °C 94 % 1004,6 hPa 0,0 l/m² 0 min 128 W/m² 19,3 km/h (3 Bft) 95,74 %
13.03.2026 12:32 10,7 °C 10,0 °C 5,6 °C 94 % 1004,6 hPa 0,0 l/m² 0 min 113 W/m² 22,5 km/h (4 Bft) 93,62 %
13.03.2026 12:34 10,7 °C 10,0 °C 5,6 °C 94 % 1004,7 hPa 0,0 l/m² 0 min 125 W/m² 25,7 km/h (4 Bft) 97,87 %
13.03.2026 12:36 10,7 °C 10,0 °C 5,6 °C 94 % 1004,5 hPa 0,0 l/m² 0 min 125 W/m² 25,7 km/h (4 Bft) 95,65 %
13.03.2026 12:38 10,7 °C 10,0 °C 5,6 °C 94 % 1004,6 hPa 0,0 l/m² 0 min 130 W/m² 19,3 km/h (3 Bft) 93,62 %
13.03.2026 12:40 10,7 °C 10,0 °C 5,6 °C 94 % 1004,5 hPa 0,0 l/m² 0 min 148 W/m² 22,5 km/h (4 Bft) 93,62 %
13.03.2026 12:42 10,7 °C 10,0 °C 5,6 °C 94 % 1004,5 hPa 0,0 l/m² 0 min 156 W/m² 22,5 km/h (4 Bft) 93,62 %
13.03.2026 12:44 10,8 °C 10,0 °C 5,6 °C 94 % 1004,5 hPa 0,0 l/m² 0 min 150 W/m² 25,7 km/h (4 Bft) 95,74 %
13.03.2026 12:46 10,8 °C 10,0 °C 5,6 °C 94 % 1004,4 hPa 0,0 l/m² 0 min 143 W/m² 35,4 km/h (5 Bft) 95,74 %
13.03.2026 12:48 10,8 °C 10,0 °C 5,6 °C 94 % 1004,5 hPa 0,0 l/m² 0 min 109 W/m² 22,5 km/h (4 Bft) 95,65 %
13.03.2026 12:50 10,8 °C 10,0 °C 5,6 °C 94 % 1004,4 hPa 0,0 l/m² 0 min 92 W/m² 22,5 km/h (4 Bft) 95,74 %
13.03.2026 12:52 10,8 °C 10,0 °C 5,6 °C 94 % 1004,5 hPa 0,0 l/m² 0 min 81 W/m² 16,1 km/h (3 Bft) 95,74 %
13.03.2026 12:54 10,8 °C 10,0 °C 5,6 °C 94 % 1004,4 hPa 0,0 l/m² 0 min 103 W/m² 19,3 km/h (3 Bft) 93,62 %
13.03.2026 12:56 10,8 °C 10,0 °C 5,6 °C 94 % 1004,4 hPa 0,0 l/m² 0 min 114 W/m² 32,2 km/h (5 Bft) 97,87 %
13.03.2026 12:58 10,8 °C 10,0 °C 5,6 °C 94 % 1004,4 hPa 0,0 l/m² 0 min 122 W/m² 19,3 km/h (3 Bft) 95,74 %
13.03.2026 13:00 10,8 °C 10,0 °C 5,6 °C 94 % 1004,5 hPa 0,0 l/m² 0 min 121 W/m² 25,7 km/h (4 Bft) 93,48 %
13.03.2026 13:02 10,8 °C 9,4 °C 5,6 °C 94 % 1004,5 hPa 0,0 l/m² 0 min 111 W/m² 45,1 km/h (6 Bft) 93,62 %
13.03.2026 13:04 10,8 °C 9,4 °C 5,6 °C 94 % 1004,5 hPa 0,0 l/m² 0 min 91 W/m² 35,4 km/h (5 Bft) 92,86 %
13.03.2026 13:06 10,8 °C 9,4 °C 5,6 °C 94 % 1004,5 hPa 0,2 l/m² 0 min 85 W/m² 29,0 km/h (5 Bft) 95,74 %
13.03.2026 13:08 10,8 °C 9,4 °C 5,6 °C 94 % 1004,5 hPa 0,0 l/m² 0 min 81 W/m² 38,6 km/h (5 Bft) 95,74 %
13.03.2026 13:10 10,8 °C 9,4 °C 5,6 °C 94 % 1004,4 hPa 0,0 l/m² 0 min 99 W/m² 16,1 km/h (3 Bft) 97,87 %
13.03.2026 13:12 10,8 °C 9,4 °C 5,6 °C 94 % 1004,4 hPa 0,0 l/m² 0 min 107 W/m² 25,7 km/h (4 Bft) 97,87 %
13.03.2026 13:14 10,8 °C 9,4 °C 5,6 °C 94 % 1004,5 hPa 0,2 l/m² 0 min 96 W/m² 25,7 km/h (4 Bft) 97,83 %
13.03.2026 13:16 10,7 °C 9,4 °C 5,6 °C 94 % 1004,5 hPa 0,0 l/m² 0 min 71 W/m² 16,1 km/h (3 Bft) 93,62 %
13.03.2026 13:18 10,8 °C 9,4 °C 5,6 °C 94 % 1004,5 hPa 0,0 l/m² 0 min 69 W/m² 12,9 km/h (3 Bft) 95,74 %
13.03.2026 13:20 10,7 °C 9,4 °C 5,6 °C 94 % 1004,7 hPa 0,0 l/m² 0 min 45 W/m² 22,5 km/h (4 Bft) 97,87 %
13.03.2026 13:22 10,7 °C 9,4 °C 5,6 °C 94 % 1004,9 hPa 0,0 l/m² 0 min 24 W/m² 29,0 km/h (5 Bft) 97,87 %
13.03.2026 13:24 10,6 °C 8,3 °C 5,0 °C 94 % 1005,0 hPa 1,0 l/m² 0 min 17 W/m² 29,0 km/h (5 Bft) 95,74 %
13.03.2026 13:26 10,3 °C 7,8 °C 4,4 °C 93 % 1004,9 hPa 0,0 l/m² 0 min 29 W/m² 32,2 km/h (5 Bft) 95,65 %
13.03.2026 13:28 9,8 °C 7,8 °C 4,4 °C 92 % 1005,0 hPa 0,2 l/m² 0 min 43 W/m² 19,3 km/h (3 Bft) 97,87 %
13.03.2026 13:30 9,4 °C 7,8 °C 3,9 °C 92 % 1005,0 hPa 0,0 l/m² 0 min 60 W/m² 16,1 km/h (3 Bft) 100,00 %
13.03.2026 13:32 9,2 °C 7,8 °C 3,9 °C 92 % 1005,0 hPa 0,2 l/m² 0 min 76 W/m² 12,9 km/h (3 Bft) 100,00 %
13.03.2026 13:34 9,1 °C 7,8 °C 4,4 °C 93 % 1004,9 hPa 0,0 l/m² 0 min 78 W/m² 16,1 km/h (3 Bft) 100,00 %
13.03.2026 13:36 9,0 °C 7,8 °C 3,9 °C 93 % 1004,9 hPa 0,0 l/m² 0 min 69 W/m² 12,9 km/h (3 Bft) 100,00 %
13.03.2026 13:38 8,9 °C 7,8 °C 3,9 °C 93 % 1005,0 hPa 0,0 l/m² 0 min 69 W/m² 12,9 km/h (3 Bft) 100,00 %
13.03.2026 13:40 8,9 °C 7,8 °C 3,9 °C 93 % 1005,0 hPa 0,0 l/m² 0 min 66 W/m² 9,7 km/h (2 Bft) 100,00 %
13.03.2026 13:42 8,8 °C 7,8 °C 3,9 °C 93 % 1005,1 hPa 0,0 l/m² 0 min 68 W/m² 6,4 km/h (2 Bft) 100,00 %
13.03.2026 13:44 8,8 °C 7,8 °C 4,4 °C 94 % 1005,1 hPa 0,2 l/m² 0 min 73 W/m² 6,4 km/h (2 Bft) 97,87 %
13.03.2026 13:46 8,8 °C 7,8 °C 3,9 °C 94 % 1005,0 hPa 0,0 l/m² 0 min 62 W/m² 16,1 km/h (3 Bft) 100,00 %
13.03.2026 13:48 8,8 °C 7,8 °C 3,9 °C 94 % 1005,1 hPa 0,2 l/m² 0 min 54 W/m² 9,7 km/h (2 Bft) 100,00 %
13.03.2026 13:50 8,8 °C 7,8 °C 3,9 °C 94 % 1005,0 hPa 0,0 l/m² 0 min 52 W/m² 12,9 km/h (3 Bft) 93,48 %
13.03.2026 13:52 8,7 °C 7,8 °C 3,9 °C 94 % 1005,1 hPa 0,0 l/m² 0 min 53 W/m² 9,7 km/h (2 Bft) 95,74 %
13.03.2026 13:54 8,7 °C 7,8 °C 3,9 °C 94 % 1005,1 hPa 0,0 l/m² 0 min 54 W/m² 9,7 km/h (2 Bft) 100,00 %
13.03.2026 13:56 8,7 °C 7,8 °C 3,9 °C 94 % 1005,1 hPa 0,0 l/m² 0 min 62 W/m² 6,4 km/h (2 Bft) 100,00 %
13.03.2026 13:58 8,7 °C 7,8 °C 4,4 °C 94 % 1005,0 hPa 0,0 l/m² 0 min 78 W/m² 6,4 km/h (2 Bft) 100,00 %
13.03.2026 14:00 8,7 °C 7,8 °C 3,9 °C 94 % 1004,9 hPa 0,2 l/m² 0 min 101 W/m² 6,4 km/h (2 Bft) 97,87 %
13.03.2026 14:02 8,7 °C 7,8 °C 4,4 °C 95 % 1004,8 hPa 0,0 l/m² 0 min 122 W/m² 12,9 km/h (3 Bft) 100,00 %
13.03.2026 14:04 8,7 °C 7,8 °C 4,4 °C 95 % 1004,8 hPa 0,2 l/m² 0 min 138 W/m² 6,4 km/h (2 Bft) 97,87 %
13.03.2026 14:06 8,7 °C 7,8 °C 4,4 °C 95 % 1004,9 hPa 0,0 l/m² 0 min 124 W/m² 9,7 km/h (2 Bft) 100,00 %
13.03.2026 14:08 8,7 °C 7,8 °C 4,4 °C 95 % 1004,9 hPa 0,0 l/m² 0 min 88 W/m² 6,4 km/h (2 Bft) 100,00 %
13.03.2026 14:10 8,7 °C 7,8 °C 4,4 °C 95 % 1004,9 hPa 0,0 l/m² 0 min 89 W/m² 16,1 km/h (3 Bft) 100,00 %
13.03.2026 14:12 8,7 °C 7,8 °C 4,4 °C 95 % 1005,0 hPa 0,0 l/m² 0 min 105 W/m² 6,4 km/h (2 Bft) 100,00 %
13.03.2026 14:14 8,7 °C 7,8 °C 4,4 °C 95 % 1005,0 hPa 0,0 l/m² 0 min 117 W/m² 12,9 km/h (3 Bft) 97,87 %
13.03.2026 14:16 8,6 °C 7,8 °C 4,4 °C 95 % 1005,0 hPa 0,0 l/m² 0 min 130 W/m² 6,4 km/h (2 Bft) 100,00 %
13.03.2026 14:18 8,7 °C 8,3 °C 4,4 °C 95 % 1005,0 hPa 0,0 l/m² 0 min 136 W/m² 6,4 km/h (2 Bft) 100,00 %
13.03.2026 14:20 8,6 °C 7,8 °C 4,4 °C 95 % 1005,0 hPa 0,2 l/m² 0 min 134 W/m² 16,1 km/h (3 Bft) 100,00 %
13.03.2026 14:22 8,6 °C 7,8 °C 4,4 °C 95 % 1005,0 hPa 0,0 l/m² 0 min 122 W/m² 12,9 km/h (3 Bft) 100,00 %
13.03.2026 14:24 8,6 °C 7,8 °C 4,4 °C 95 % 1005,0 hPa 0,0 l/m² 0 min 127 W/m² 22,5 km/h (4 Bft) 100,00 %
13.03.2026 14:26 8,6 °C 7,8 °C 4,4 °C 95 % 1005,0 hPa 0,2 l/m² 0 min 132 W/m² 6,4 km/h (2 Bft) 100,00 %
13.03.2026 14:28 8,6 °C 7,8 °C 4,4 °C 95 % 1005,0 hPa 0,0 l/m² 0 min 141 W/m² 6,4 km/h (2 Bft) 97,87 %
13.03.2026 14:30 8,6 °C 8,3 °C 4,4 °C 96 % 1005,0 hPa 0,0 l/m² 0 min 134 W/m² 12,9 km/h (3 Bft) 100,00 %
13.03.2026 14:32 8,6 °C 8,3 °C 4,4 °C 95 % 1005,1 hPa 0,0 l/m² 0 min 121 W/m² 12,9 km/h (3 Bft) 97,87 %
13.03.2026 14:34 8,7 °C 8,3 °C 4,4 °C 96 % 1005,1 hPa 0,0 l/m² 0 min 97 W/m² 19,3 km/h (3 Bft) 97,83 %
13.03.2026 14:36 8,6 °C 7,8 °C 4,4 °C 96 % 1005,1 hPa 0,0 l/m² 0 min 87 W/m² 12,9 km/h (3 Bft) 100,00 %
13.03.2026 14:38 8,6 °C 7,8 °C 4,4 °C 96 % 1005,1 hPa 0,0 l/m² 0 min 92 W/m² 19,3 km/h (3 Bft) 97,87 %
13.03.2026 14:40 8,6 °C 7,8 °C 3,9 °C 96 % 1005,1 hPa 0,0 l/m² 0 min 104 W/m² 19,3 km/h (3 Bft) 97,87 %
13.03.2026 14:42 8,5 °C 7,8 °C 4,4 °C 96 % 1005,1 hPa 0,2 l/m² 0 min 98 W/m² 12,9 km/h (3 Bft) 100,00 %
13.03.2026 14:44 8,5 °C 7,8 °C 3,9 °C 96 % 1005,1 hPa 0,0 l/m² 0 min 97 W/m² 12,9 km/h (3 Bft) 97,83 %
13.03.2026 14:46 8,4 °C 7,8 °C 3,9 °C 96 % 1005,1 hPa 0,0 l/m² 0 min 100 W/m² 16,1 km/h (3 Bft) 97,87 %
13.03.2026 14:48 8,4 °C 7,8 °C 3,9 °C 96 % 1005,2 hPa 0,0 l/m² 0 min 98 W/m² 12,9 km/h (3 Bft) 97,87 %
13.03.2026 14:50 8,3 °C 7,2 °C 3,9 °C 96 % 1005,2 hPa 0,0 l/m² 0 min 86 W/m² 16,1 km/h (3 Bft) 97,87 %
13.03.2026 14:52 8,3 °C 7,2 °C 3,9 °C 96 % 1005,2 hPa 0,2 l/m² 0 min 79 W/m² 16,1 km/h (3 Bft) 97,87 %
13.03.2026 14:54 8,2 °C 7,2 °C 3,9 °C 96 % 1005,2 hPa 0,0 l/m² 0 min 74 W/m² 9,7 km/h (2 Bft) 93,62 %
13.03.2026 14:56 8,2 °C 7,2 °C 3,9 °C 96 % 1005,2 hPa 0,0 l/m² 0 min 84 W/m² 12,9 km/h (3 Bft) 95,65 %
13.03.2026 14:58 8,2 °C 7,2 °C 3,9 °C 96 % 1005,2 hPa 0,0 l/m² 0 min 91 W/m² 9,7 km/h (2 Bft) 97,87 %
13.03.2026 15:00 8,2 °C 7,2 °C 3,9 °C 96 % 1005,2 hPa 0,0 l/m² 0 min 94 W/m² 12,9 km/h (3 Bft) 97,87 %
13.03.2026 15:02 8,1 °C 7,2 °C 3,9 °C 95 % 1005,2 hPa 0,0 l/m² 0 min 87 W/m² 16,1 km/h (3 Bft) 93,62 %
13.03.2026 15:04 8,1 °C 7,2 °C 3,9 °C 95 % 1005,2 hPa 0,0 l/m² 0 min 87 W/m² 19,3 km/h (3 Bft) 95,12 %
13.03.2026 15:06 8,1 °C 7,2 °C 3,9 °C 96 % 1005,2 hPa 0,0 l/m² 0 min 94 W/m² 19,3 km/h (3 Bft) 95,74 %
13.03.2026 15:08 8,0 °C 7,2 °C 3,3 °C 95 % 1005,2 hPa 0,0 l/m² 0 min 99 W/m² 19,3 km/h (3 Bft) 93,62 %
13.03.2026 15:10 7,9 °C 7,2 °C 3,3 °C 95 % 1005,2 hPa 0,0 l/m² 0 min 100 W/m² 25,7 km/h (4 Bft) 95,74 %
13.03.2026 15:12 7,8 °C 6,7 °C 3,3 °C 95 % 1005,2 hPa 0,0 l/m² 0 min 97 W/m² 19,3 km/h (3 Bft) 97,83 %
13.03.2026 15:14 7,7 °C 6,7 °C 2,8 °C 95 % 1005,2 hPa 0,0 l/m² 0 min 93 W/m² 12,9 km/h (3 Bft) 94,44 %
13.03.2026 15:16 7,6 °C 6,7 °C 3,3 °C 95 % 1005,2 hPa 0,0 l/m² 0 min 94 W/m² 12,9 km/h (3 Bft) 95,74 %
13.03.2026 15:18 7,6 °C 6,7 °C 3,3 °C 95 % 1005,2 hPa 0,0 l/m² 0 min 95 W/m² 12,9 km/h (3 Bft) 93,62 %
13.03.2026 15:20 7,6 °C 6,7 °C 3,3 °C 95 % 1005,2 hPa 0,0 l/m² 0 min 98 W/m² 12,9 km/h (3 Bft) 93,48 %
13.03.2026 15:22 7,6 °C 6,7 °C 3,3 °C 95 % 1005,2 hPa 0,0 l/m² 0 min 90 W/m² 12,9 km/h (3 Bft) 95,74 %
13.03.2026 15:24 7,6 °C 6,7 °C 3,3 °C 95 % 1005,2 hPa 0,0 l/m² 0 min 70 W/m² 12,9 km/h (3 Bft) 93,62 %
13.03.2026 15:26 7,6 °C 6,7 °C 3,3 °C 95 % 1005,2 hPa 0,0 l/m² 0 min 61 W/m² 12,9 km/h (3 Bft) 93,62 %
13.03.2026 15:28 7,5 °C 6,7 °C 2,8 °C 95 % 1005,1 hPa 0,0 l/m² 0 min 54 W/m² 12,9 km/h (3 Bft) 95,74 %
13.03.2026 15:30 7,4 °C 6,7 °C 2,8 °C 95 % 1005,1 hPa 0,0 l/m² 0 min 52 W/m² 16,1 km/h (3 Bft) 93,62 %
13.03.2026 15:32 7,4 °C 6,7 °C 2,8 °C 95 % 1005,2 hPa 0,0 l/m² 0 min 50 W/m² 9,7 km/h (2 Bft) 93,48 %
13.03.2026 15:34 7,4 °C 6,7 °C 2,8 °C 95 % 1005,2 hPa 0,0 l/m² 0 min 41 W/m² 16,1 km/h (3 Bft) 95,74 %
13.03.2026 15:36 7,4 °C 6,7 °C 2,8 °C 95 % 1005,2 hPa 0,0 l/m² 0 min 43 W/m² 12,9 km/h (3 Bft) 97,87 %
13.03.2026 15:38 7,3 °C 6,1 °C 2,8 °C 94 % 1005,2 hPa 0,0 l/m² 0 min 47 W/m² 16,1 km/h (3 Bft) 95,74 %
13.03.2026 15:40 7,3 °C 6,1 °C 2,8 °C 94 % 1005,2 hPa 0,0 l/m² 0 min 52 W/m² 12,9 km/h (3 Bft) 95,74 %
13.03.2026 15:42 7,2 °C 6,1 °C 2,8 °C 94 % 1005,2 hPa 0,0 l/m² 0 min 53 W/m² 12,9 km/h (3 Bft) 95,65 %
13.03.2026 15:44 7,2 °C 6,1 °C 2,8 °C 94 % 1005,2 hPa 0,0 l/m² 0 min 42 W/m² 9,7 km/h (2 Bft) 95,74 %
13.03.2026 15:46 7,1 °C 6,1 °C 2,8 °C 94 % 1005,2 hPa 0,0 l/m² 0 min 36 W/m² 9,7 km/h (2 Bft) 97,87 %
13.03.2026 15:48 7,1 °C 6,1 °C 2,8 °C 94 % 1005,1 hPa 0,0 l/m² 0 min 35 W/m² 12,9 km/h (3 Bft) 95,74 %
13.03.2026 15:50 7,1 °C 6,1 °C 2,2 °C 94 % 1005,1 hPa 0,0 l/m² 0 min 35 W/m² 12,9 km/h (3 Bft) 95,74 %
13.03.2026 15:52 7,1 °C 6,1 °C 2,2 °C 94 % 1005,1 hPa 0,0 l/m² 0 min 35 W/m² 12,9 km/h (3 Bft) 95,74 %
13.03.2026 15:54 7,1 °C 6,1 °C 2,8 °C 94 % 1005,2 hPa 0,0 l/m² 0 min 35 W/m² 9,7 km/h (2 Bft) 95,65 %
13.03.2026 15:56 7,1 °C 6,1 °C 2,8 °C 94 % 1005,2 hPa 0,0 l/m² 0 min 39 W/m² 9,7 km/h (2 Bft) 97,87 %
13.03.2026 15:58 7,1 °C 6,1 °C 2,8 °C 94 % 1005,1 hPa 0,2 l/m² 0 min 50 W/m² 6,4 km/h (2 Bft) 65,96 %
13.03.2026 16:00 7,1 °C 6,1 °C 2,8 °C 94 % 1005,1 hPa 0,0 l/m² 0 min 65 W/m² 6,4 km/h (2 Bft) 86,05 %
13.03.2026 16:02 7,1 °C 6,1 °C 2,8 °C 94 % 1005,1 hPa 0,0 l/m² 0 min 65 W/m² 6,4 km/h (2 Bft) 97,87 %
13.03.2026 16:04 7,1 °C 6,1 °C 2,8 °C 94 % 1005,1 hPa 0,0 l/m² 0 min 53 W/m² 9,7 km/h (2 Bft) 97,62 %
13.03.2026 16:06 7,1 °C 6,7 °C 2,8 °C 94 % 1005,1 hPa 0,0 l/m² 0 min 54 W/m² 12,9 km/h (3 Bft) 95,74 %
13.03.2026 16:08 7,1 °C 6,1 °C 2,8 °C 94 % 1005,1 hPa 0,0 l/m² 0 min 55 W/m² 9,7 km/h (2 Bft) 97,87 %
13.03.2026 16:10 7,1 °C 6,7 °C 2,8 °C 94 % 1005,2 hPa 0,0 l/m² 0 min 45 W/m² 6,4 km/h (2 Bft) 97,83 %
13.03.2026 16:12 7,1 °C 6,1 °C 2,8 °C 94 % 1005,1 hPa 0,0 l/m² 0 min 35 W/m² 12,9 km/h (3 Bft) 97,87 %
13.03.2026 16:14 7,1 °C 6,1 °C 2,8 °C 94 % 1005,2 hPa 0,0 l/m² 0 min 29 W/m² 9,7 km/h (2 Bft) 95,74 %
13.03.2026 16:16 7,1 °C 6,1 °C 2,8 °C 94 % 1005,1 hPa 0,0 l/m² 0 min 31 W/m² 6,4 km/h (2 Bft) 97,87 %
13.03.2026 16:18 7,1 °C 6,1 °C 2,8 °C 94 % 1005,2 hPa 0,0 l/m² 0 min 34 W/m² 6,4 km/h (2 Bft) 100,00 %
13.03.2026 16:20 7,1 °C 6,1 °C 2,8 °C 94 % 1005,1 hPa 0,0 l/m² 0 min 36 W/m² 6,4 km/h (2 Bft) 100,00 %
13.03.2026 16:22 7,1 °C 6,7 °C 2,8 °C 94 % 1005,1 hPa 0,0 l/m² 0 min 39 W/m² 12,9 km/h (3 Bft) 97,83 %
13.03.2026 16:24 7,0 °C 6,7 °C 2,8 °C 94 % 1005,0 hPa 0,0 l/m² 0 min 49 W/m² 9,7 km/h (2 Bft) 95,74 %
13.03.2026 16:26 7,0 °C 6,7 °C 2,8 °C 94 % 1005,0 hPa 0,0 l/m² 0 min 59 W/m² 6,4 km/h (2 Bft) 97,87 %
13.03.2026 16:28 7,0 °C 6,7 °C 2,8 °C 94 % 1004,9 hPa 0,0 l/m² 0 min 59 W/m² 16,1 km/h (3 Bft) 100,00 %
13.03.2026 16:30 7,0 °C 6,7 °C 2,8 °C 94 % 1004,9 hPa 0,0 l/m² 0 min 53 W/m² 9,7 km/h (2 Bft) 95,74 %
13.03.2026 16:32 7,0 °C 6,7 °C 2,8 °C 94 % 1004,9 hPa 0,0 l/m² 0 min 50 W/m² 3,2 km/h (1 Bft) 97,83 %
13.03.2026 16:34 7,0 °C 6,7 °C 2,8 °C 94 % 1005,0 hPa 0,0 l/m² 0 min 53 W/m² 16,1 km/h (3 Bft) 95,74 %
13.03.2026 16:36 6,9 °C 6,7 °C 2,2 °C 94 % 1005,0 hPa 0,0 l/m² 0 min 52 W/m² 12,9 km/h (3 Bft) 95,74 %
13.03.2026 16:38 6,9 °C 6,7 °C 2,2 °C 94 % 1005,0 hPa 0,0 l/m² 0 min 54 W/m² 12,9 km/h (3 Bft) 95,74 %
13.03.2026 16:40 6,8 °C 6,7 °C 2,2 °C 94 % 1004,9 hPa 0,0 l/m² 0 min 60 W/m² 9,7 km/h (2 Bft) 97,87 %
13.03.2026 16:42 6,8 °C 6,7 °C 2,2 °C 94 % 1004,9 hPa 0,0 l/m² 0 min 65 W/m² 12,9 km/h (3 Bft) 97,87 %
13.03.2026 16:44 6,8 °C 6,7 °C 2,2 °C 94 % 1004,9 hPa 0,0 l/m² 0 min 68 W/m² 12,9 km/h (3 Bft) 97,83 %
13.03.2026 16:46 6,7 °C 6,7 °C 2,2 °C 94 % 1004,9 hPa 0,0 l/m² 0 min 75 W/m² 16,1 km/h (3 Bft) 97,87 %
13.03.2026 16:48 6,7 °C 6,7 °C 2,2 °C 94 % 1004,9 hPa 0,0 l/m² 0 min 75 W/m² 12,9 km/h (3 Bft) 97,87 %
13.03.2026 16:50 6,7 °C 6,7 °C 2,2 °C 94 % 1004,8 hPa 0,0 l/m² 0 min 74 W/m² 6,4 km/h (2 Bft) 97,87 %
13.03.2026 16:52 6,7 °C 6,7 °C 2,2 °C 94 % 1004,8 hPa 0,0 l/m² 0 min 70 W/m² 12,9 km/h (3 Bft) 97,87 %
13.03.2026 16:54 6,6 °C 6,7 °C 2,2 °C 94 % 1004,8 hPa 0,0 l/m² 0 min 62 W/m² 9,7 km/h (2 Bft) 93,62 %
13.03.2026 16:56 6,6 °C 6,7 °C 2,2 °C 94 % 1004,8 hPa 0,0 l/m² 0 min 60 W/m² 6,4 km/h (2 Bft) 97,87 %
13.03.2026 16:58 6,6 °C 6,1 °C 2,2 °C 94 % 1004,8 hPa 0,0 l/m² 0 min 55 W/m² 16,1 km/h (3 Bft) 97,83 %
13.03.2026 17:00 6,6 °C 6,1 °C 2,2 °C 93 % 1004,7 hPa 0,0 l/m² 0 min 48 W/m² 12,9 km/h (3 Bft) 95,74 %
13.03.2026 17:02 6,5 °C 6,1 °C 1,7 °C 93 % 1004,7 hPa 0,0 l/m² 0 min 41 W/m² 16,1 km/h (3 Bft) 95,74 %
13.03.2026 17:04 6,5 °C 6,1 °C 1,7 °C 93 % 1004,7 hPa 0,0 l/m² 0 min 40 W/m² 12,9 km/h (3 Bft) 97,96 %
13.03.2026 17:06 6,4 °C 6,1 °C 1,7 °C 93 % 1004,7 hPa 0,0 l/m² 0 min 40 W/m² 9,7 km/h (2 Bft) 95,74 %
13.03.2026 17:08 6,4 °C 6,1 °C 1,7 °C 93 % 1004,8 hPa 0,0 l/m² 0 min 38 W/m² 6,4 km/h (2 Bft) 100,00 %
13.03.2026 17:10 6,4 °C 6,1 °C 1,7 °C 93 % 1004,8 hPa 0,0 l/m² 0 min 33 W/m² 9,7 km/h (2 Bft) 100,00 %
13.03.2026 17:12 6,4 °C 6,1 °C 1,7 °C 93 % 1004,8 hPa 0,0 l/m² 0 min 30 W/m² 12,9 km/h (3 Bft) 97,87 %
13.03.2026 17:14 6,4 °C 6,1 °C 1,7 °C 93 % 1004,8 hPa 0,0 l/m² 0 min 24 W/m² 12,9 km/h (3 Bft) 100,00 %
13.03.2026 17:16 6,4 °C 5,6 °C 1,7 °C 93 % 1004,8 hPa 0,0 l/m² 0 min 20 W/m² 9,7 km/h (2 Bft) 100,00 %
13.03.2026 17:18 6,3 °C 5,6 °C 1,7 °C 93 % 1004,8 hPa 0,0 l/m² 0 min 19 W/m² 6,4 km/h (2 Bft) 100,00 %
13.03.2026 17:20 6,3 °C 5,6 °C 1,7 °C 93 % 1004,9 hPa 0,0 l/m² 0 min 19 W/m² 6,4 km/h (2 Bft) 97,83 %
13.03.2026 17:22 6,3 °C 5,6 °C 1,7 °C 93 % 1004,8 hPa 0,0 l/m² 0 min 21 W/m² 12,9 km/h (3 Bft) 97,87 %
13.03.2026 17:24 6,3 °C 5,6 °C 1,7 °C 93 % 1004,8 hPa 0,0 l/m² 0 min 23 W/m² 6,4 km/h (2 Bft) 100,00 %
13.03.2026 17:26 6,3 °C 5,6 °C 1,7 °C 93 % 1004,8 hPa 0,0 l/m² 0 min 23 W/m² 9,7 km/h (2 Bft) 97,87 %
13.03.2026 17:28 6,3 °C 5,6 °C 1,7 °C 93 % 1004,8 hPa 0,0 l/m² 0 min 25 W/m² 6,4 km/h (2 Bft) 97,87 %
13.03.2026 17:30 6,3 °C 5,6 °C 1,7 °C 93 % 1004,8 hPa 0,2 l/m² 0 min 29 W/m² 9,7 km/h (2 Bft) 97,87 %
13.03.2026 17:32 6,3 °C 5,6 °C 1,7 °C 93 % 1004,8 hPa 0,0 l/m² 0 min 32 W/m² 6,4 km/h (2 Bft) 97,83 %
13.03.2026 17:34 6,3 °C 5,6 °C 1,7 °C 93 % 1004,8 hPa 0,0 l/m² 0 min 28 W/m² 6,4 km/h (2 Bft) 97,87 %
13.03.2026 17:36 6,3 °C 5,6 °C 1,7 °C 93 % 1004,8 hPa 0,0 l/m² 0 min 23 W/m² 9,7 km/h (2 Bft) 97,87 %
13.03.2026 17:38 6,3 °C 5,6 °C 1,7 °C 93 % 1004,8 hPa 0,0 l/m² 0 min 23 W/m² 6,4 km/h (2 Bft) 97,87 %
13.03.2026 17:40 6,2 °C 5,6 °C 1,7 °C 93 % 1004,7 hPa 0,0 l/m² 0 min 24 W/m² 9,7 km/h (2 Bft) 97,87 %
13.03.2026 17:42 6,2 °C 5,6 °C 1,7 °C 93 % 1004,7 hPa 0,0 l/m² 0 min 25 W/m² 6,4 km/h (2 Bft) 95,65 %
13.03.2026 17:44 6,2 °C 5,6 °C 1,7 °C 93 % 1004,7 hPa 0,0 l/m² 0 min 25 W/m² 9,7 km/h (2 Bft) 97,87 %
13.03.2026 17:46 6,2 °C 5,6 °C 1,7 °C 93 % 1004,6 hPa 0,0 l/m² 0 min 25 W/m² 6,4 km/h (2 Bft) 97,87 %
13.03.2026 17:48 6,2 °C 5,6 °C 1,7 °C 93 % 1004,6 hPa 0,0 l/m² 0 min 29 W/m² 3,2 km/h (1 Bft) 97,87 %
13.03.2026 17:50 6,2 °C 5,6 °C 1,7 °C 93 % 1004,6 hPa 0,0 l/m² 0 min 30 W/m² 12,9 km/h (3 Bft) 97,87 %
13.03.2026 17:52 6,1 °C 5,6 °C 1,7 °C 93 % 1004,6 hPa 0,0 l/m² 0 min 23 W/m² 9,7 km/h (2 Bft) 97,87 %
13.03.2026 17:54 6,1 °C 5,6 °C 1,7 °C 93 % 1004,6 hPa 0,0 l/m² 0 min 19 W/m² 9,7 km/h (2 Bft) 97,83 %
13.03.2026 17:56 6,1 °C 5,6 °C 1,7 °C 93 % 1004,6 hPa 0,2 l/m² 0 min 19 W/m² 9,7 km/h (2 Bft) 97,87 %
13.03.2026 17:58 6,1 °C 5,6 °C 1,7 °C 93 % 1004,6 hPa 0,0 l/m² 0 min 19 W/m² 12,9 km/h (3 Bft) 97,87 %
13.03.2026 18:00 6,1 °C 5,6 °C 1,7 °C 93 % 1004,6 hPa 0,0 l/m² 0 min 18 W/m² 6,4 km/h (2 Bft) 97,87 %
13.03.2026 18:02 6,1 °C 5,0 °C 1,7 °C 93 % 1004,6 hPa 0,0 l/m² 0 min 16 W/m² 12,9 km/h (3 Bft) 97,87 %
13.03.2026 18:04 6,0 °C 5,0 °C 1,7 °C 93 % 1004,6 hPa 0,0 l/m² 0 min 17 W/m² 9,7 km/h (2 Bft) 95,92 %
13.03.2026 18:07 5,9 °C 5,0 °C 1,1 °C 93 % 1004,6 hPa 0,0 l/m² 0 min 16 W/m² 9,7 km/h (2 Bft) 95,71 %
13.03.2026 18:08 5,9 °C 5,0 °C 1,1 °C 93 % 1004,6 hPa 0,0 l/m² 0 min 13 W/m² 6,4 km/h (2 Bft) 100,00 %
13.03.2026 18:12 5,8 °C 5,0 °C 1,1 °C 93 % 1004,6 hPa 0,0 l/m² 0 min 11 W/m² 6,4 km/h (2 Bft) 100,00 %
13.03.2026 18:14 5,8 °C 5,0 °C 1,1 °C 93 % 1004,6 hPa 0,0 l/m² 0 min 10 W/m² 3,2 km/h (1 Bft) 95,92 %
13.03.2026 18:16 5,8 °C 5,0 °C 1,1 °C 93 % 1004,5 hPa 0,2 l/m² 0 min 7 W/m² 6,4 km/h (2 Bft) 93,62 %
13.03.2026 18:18 5,8 °C 5,0 °C 1,1 °C 93 % 1004,5 hPa 0,0 l/m² 0 min 6 W/m² 6,4 km/h (2 Bft) 93,48 %
13.03.2026 18:20 5,7 °C 5,0 °C 1,1 °C 93 % 1004,5 hPa 0,0 l/m² 0 min 5 W/m² 6,4 km/h (2 Bft) 95,74 %
13.03.2026 18:22 5,7 °C 5,0 °C 1,1 °C 94 % 1004,4 hPa 0,0 l/m² 0 min 5 W/m² 6,4 km/h (2 Bft) 97,87 %
13.03.2026 18:24 5,7 °C 5,0 °C 1,1 °C 94 % 1004,4 hPa 0,0 l/m² 0 min 0 W/m² 3,2 km/h (1 Bft) 97,87 %
13.03.2026 18:26 5,7 °C 5,0 °C 1,1 °C 94 % 1004,4 hPa 0,0 l/m² 0 min 0 W/m² 6,4 km/h (2 Bft) 95,74 %
13.03.2026 18:28 5,7 °C 5,0 °C 1,1 °C 94 % 1004,4 hPa 0,0 l/m² 0 min 0 W/m² 3,2 km/h (1 Bft) 97,87 %
13.03.2026 18:30 5,7 °C 5,0 °C 1,1 °C 94 % 1004,3 hPa 0,2 l/m² 0 min 0 W/m² 3,2 km/h (1 Bft) 95,65 %
13.03.2026 18:32 5,6 °C 5,0 °C 1,1 °C 94 % 1004,3 hPa 0,0 l/m² 0 min 0 W/m² 0,0 km/h (0 Bft) 97,87 %
13.03.2026 18:34 5,6 °C 4,4 °C 1,1 °C 94 % 1004,4 hPa 0,0 l/m² 0 min 0 W/m² 3,2 km/h (1 Bft) 97,87 %
13.03.2026 18:36 5,6 °C 4,4 °C 1,1 °C 94 % 1004,4 hPa 0,0 l/m² 0 min 0 W/m² 0,0 km/h (0 Bft) 97,87 %
13.03.2026 18:38 5,6 °C 4,4 °C 1,1 °C 94 % 1004,4 hPa 0,0 l/m² 0 min 0 W/m² 0,0 km/h (0 Bft) 95,74 %
13.03.2026 18:40 5,6 °C 4,4 °C 1,1 °C 94 % 1004,4 hPa 0,2 l/m² 0 min 0 W/m² 0,0 km/h (0 Bft) 97,83 %
13.03.2026 18:42 5,6 °C 4,4 °C 1,1 °C 94 % 1004,3 hPa 0,0 l/m² 0 min 0 W/m² 3,2 km/h (1 Bft) 95,74 %
13.03.2026 18:44 5,5 °C 4,4 °C 1,1 °C 94 % 1004,4 hPa 0,0 l/m² 0 min 0 W/m² 0,0 km/h (0 Bft) 97,62 %
13.03.2026 18:46 5,5 °C 4,4 °C 1,1 °C 94 % 1004,3 hPa 0,0 l/m² 0 min 0 W/m² 0,0 km/h (0 Bft) 100,00 %
13.03.2026 18:48 5,4 °C 4,4 °C 1,1 °C 94 % 1004,4 hPa 0,0 l/m² 0 min 0 W/m² 3,2 km/h (1 Bft) 95,74 %
13.03.2026 18:50 5,4 °C 4,4 °C 1,1 °C 94 % 1004,4 hPa 0,0 l/m² 0 min 0 W/m² 0,0 km/h (0 Bft) 98,00 %
13.03.2026 18:52 5,3 °C 4,4 °C 1,1 °C 94 % 1004,4 hPa 0,0 l/m² 0 min 0 W/m² 3,2 km/h (1 Bft) 97,87 %
13.03.2026 18:54 5,3 °C 4,4 °C 1,1 °C 94 % 1004,4 hPa 0,0 l/m² 0 min 0 W/m² 3,2 km/h (1 Bft) 97,83 %
13.03.2026 18:56 5,3 °C 4,4 °C 1,1 °C 94 % 1004,4 hPa 0,0 l/m² 0 min 0 W/m² 6,4 km/h (2 Bft) 95,74 %
13.03.2026 18:58 5,3 °C 4,4 °C 1,1 °C 94 % 1004,2 hPa 0,0 l/m² 0 min 0 W/m² 3,2 km/h (1 Bft) 93,88 %
13.03.2026 19:00 5,3 °C 4,4 °C 1,1 °C 94 % 1004,3 hPa 0,0 l/m² 0 min 0 W/m² 6,4 km/h (2 Bft) 95,74 %
13.03.2026 19:05 5,2 °C 4,4 °C 1,1 °C 94 % 1004,2 hPa 0,2 l/m² 0 min 0 W/m² 6,4 km/h (2 Bft) 64,91 %
13.03.2026 19:10 5,2 °C 4,4 °C 1,1 °C 94 % 1004,1 hPa 0,0 l/m² 0 min 0 W/m² 6,4 km/h (2 Bft) 97,78 %
13.03.2026 19:12 5,2 °C 4,4 °C 1,1 °C 94 % 1004,1 hPa 0,0 l/m² 0 min 0 W/m² 3,2 km/h (1 Bft) 97,87 %
13.03.2026 19:14 5,2 °C 4,4 °C 1,1 °C 94 % 1004,0 hPa 0,0 l/m² 0 min 0 W/m² 6,4 km/h (2 Bft) 93,62 %
13.03.2026 19:16 5,2 °C 4,4 °C 1,1 °C 94 % 1004,0 hPa 0,0 l/m² 0 min 0 W/m² 6,4 km/h (2 Bft) 95,65 %
13.03.2026 19:18 5,2 °C 4,4 °C 1,1 °C 94 % 1003,9 hPa 0,0 l/m² 0 min 0 W/m² 6,4 km/h (2 Bft) 97,87 %
13.03.2026 19:20 5,2 °C 4,4 °C 1,1 °C 94 % 1003,9 hPa 0,2 l/m² 0 min 0 W/m² 6,4 km/h (2 Bft) 97,87 %
13.03.2026 19:22 5,2 °C 4,4 °C 1,1 °C 94 % 1003,8 hPa 0,0 l/m² 0 min 0 W/m² 6,4 km/h (2 Bft) 97,87 %
13.03.2026 19:24 5,2 °C 4,4 °C 1,1 °C 94 % 1003,8 hPa 0,0 l/m² 0 min 0 W/m² 12,9 km/h (3 Bft) 97,87 %
13.03.2026 19:26 5,2 °C 4,4 °C 1,1 °C 95 % 1003,7 hPa 0,0 l/m² 0 min 0 W/m² 12,9 km/h (3 Bft) 97,87 %
13.03.2026 19:28 5,1 °C 4,4 °C 1,1 °C 95 % 1003,7 hPa 0,0 l/m² 0 min 0 W/m² 6,4 km/h (2 Bft) 93,48 %
13.03.2026 19:30 5,1 °C 4,4 °C 1,1 °C 95 % 1003,6 hPa 0,0 l/m² 0 min 0 W/m² 12,9 km/h (3 Bft) 97,87 %
13.03.2026 19:32 5,1 °C 4,4 °C 1,1 °C 95 % 1003,6 hPa 0,0 l/m² 0 min 0 W/m² 12,9 km/h (3 Bft) 95,74 %
13.03.2026 19:34 5,1 °C 4,4 °C 1,1 °C 95 % 1003,6 hPa 0,0 l/m² 0 min 0 W/m² 12,9 km/h (3 Bft) 100,00 %
13.03.2026 19:36 5,1 °C 4,4 °C 1,1 °C 95 % 1003,6 hPa 0,0 l/m² 0 min 0 W/m² 6,4 km/h (2 Bft) 100,00 %
13.03.2026 19:38 5,2 °C 4,4 °C 1,1 °C 95 % 1003,6 hPa 0,0 l/m² 0 min 0 W/m² 6,4 km/h (2 Bft) 97,83 %
13.03.2026 19:40 5,1 °C 4,4 °C 1,1 °C 95 % 1003,5 hPa 0,0 l/m² 0 min 0 W/m² 6,4 km/h (2 Bft) 97,87 %
13.03.2026 19:42 5,2 °C 4,4 °C 1,1 °C 95 % 1003,4 hPa 0,0 l/m² 0 min 0 W/m² 6,4 km/h (2 Bft) 100,00 %
13.03.2026 19:44 5,2 °C 4,4 °C 1,1 °C 95 % 1003,4 hPa 0,0 l/m² 0 min 0 W/m² 6,4 km/h (2 Bft) 100,00 %
13.03.2026 19:46 5,1 °C 4,4 °C 1,1 °C 95 % 1003,3 hPa 0,0 l/m² 0 min 0 W/m² 6,4 km/h (2 Bft) 100,00 %
13.03.2026 19:48 5,2 °C 4,4 °C 1,1 °C 95 % 1003,4 hPa 0,0 l/m² 0 min 0 W/m² 12,9 km/h (3 Bft) 95,74 %
13.03.2026 19:50 5,2 °C 4,4 °C 1,1 °C 95 % 1003,4 hPa 0,2 l/m² 0 min 0 W/m² 12,9 km/h (3 Bft) 100,00 %
13.03.2026 19:52 5,2 °C 4,4 °C 1,1 °C 95 % 1003,3 hPa 0,0 l/m² 0 min 0 W/m² 6,4 km/h (2 Bft) 97,87 %
13.03.2026 19:54 5,2 °C 4,4 °C 1,1 °C 95 % 1003,3 hPa 0,0 l/m² 0 min 0 W/m² 6,4 km/h (2 Bft) 97,87 %
13.03.2026 19:56 5,2 °C 4,4 °C 1,1 °C 95 % 1003,2 hPa 0,0 l/m² 0 min 0 W/m² 12,9 km/h (3 Bft) 93,62 %
13.03.2026 19:58 5,2 °C 4,4 °C 1,1 °C 95 % 1003,1 hPa 0,0 l/m² 0 min 0 W/m² 3,2 km/h (1 Bft) 93,62 %
13.03.2026 20:00 5,2 °C 4,4 °C 1,1 °C 95 % 1003,1 hPa 0,0 l/m² 0 min 0 W/m² 12,9 km/h (3 Bft) 95,74 %
13.03.2026 20:02 5,2 °C 4,4 °C 1,1 °C 95 % 1003,1 hPa 0,0 l/m² 0 min 0 W/m² 9,7 km/h (2 Bft) 95,65 %
13.03.2026 20:04 5,2 °C 4,4 °C 1,1 °C 95 % 1003,1 hPa 0,0 l/m² 0 min 0 W/m² 19,3 km/h (3 Bft) 95,74 %
13.03.2026 20:06 5,2 °C 4,4 °C 1,1 °C 95 % 1003,1 hPa 0,0 l/m² 0 min 0 W/m² 12,9 km/h (3 Bft) 93,62 %
13.03.2026 20:08 5,2 °C 4,4 °C 1,1 °C 95 % 1003,1 hPa 0,0 l/m² 0 min 0 W/m² 9,7 km/h (2 Bft) 95,83 %
13.03.2026 20:10 5,2 °C 4,4 °C 1,1 °C 95 % 1003,1 hPa 0,0 l/m² 0 min 0 W/m² 12,9 km/h (3 Bft) 92,00 %
13.03.2026 20:12 5,2 °C 4,4 °C 1,1 °C 95 % 1003,1 hPa 0,0 l/m² 0 min 0 W/m² 19,3 km/h (3 Bft) 95,65 %
13.03.2026 20:14 5,2 °C 4,4 °C 1,1 °C 95 % 1003,1 hPa 0,0 l/m² 0 min 0 W/m² 6,4 km/h (2 Bft) 95,74 %
13.03.2026 20:16 5,2 °C 4,4 °C 1,1 °C 95 % 1003,0 hPa 0,0 l/m² 0 min 0 W/m² 6,4 km/h (2 Bft) 95,74 %
13.03.2026 20:18 5,2 °C 4,4 °C 1,1 °C 95 % 1003,0 hPa 0,0 l/m² 0 min 0 W/m² 3,2 km/h (1 Bft) 95,74 %
13.03.2026 20:20 5,2 °C 4,4 °C 1,1 °C 95 % 1003,0 hPa 0,0 l/m² 0 min 0 W/m² 9,7 km/h (2 Bft) 95,74 %
13.03.2026 20:22 5,2 °C 4,4 °C 1,1 °C 95 % 1003,0 hPa 0,0 l/m² 0 min 0 W/m² 9,7 km/h (2 Bft) 93,62 %
13.03.2026 20:24 5,2 °C 4,4 °C 1,1 °C 95 % 1002,9 hPa 0,0 l/m² 0 min 0 W/m² 6,4 km/h (2 Bft) 57,45 %
13.03.2026 20:26 5,2 °C 4,4 °C 1,1 °C 95 % 1002,9 hPa 0,0 l/m² 0 min 0 W/m² 6,4 km/h (2 Bft) 75,00 %
13.03.2026 20:28 5,2 °C 4,4 °C 1,1 °C 95 % 1002,8 hPa 0,0 l/m² 0 min 0 W/m² 16,1 km/h (3 Bft) 97,87 %
13.03.2026 20:30 5,2 °C 4,4 °C 1,1 °C 95 % 1002,8 hPa 0,0 l/m² 0 min 0 W/m² 9,7 km/h (2 Bft) 100,00 %
13.03.2026 20:32 5,2 °C 4,4 °C 1,1 °C 95 % 1002,8 hPa 0,0 l/m² 0 min 0 W/m² 9,7 km/h (2 Bft) 100,00 %
13.03.2026 20:34 5,2 °C 4,4 °C 1,1 °C 95 % 1002,8 hPa 0,0 l/m² 0 min 0 W/m² 12,9 km/h (3 Bft) 97,87 %
13.03.2026 20:36 5,2 °C 4,4 °C 1,1 °C 95 % 1002,8 hPa 0,0 l/m² 0 min 0 W/m² 9,7 km/h (2 Bft) 100,00 %
13.03.2026 20:38 5,2 °C 4,4 °C 1,1 °C 95 % 1002,9 hPa 0,0 l/m² 0 min 0 W/m² 6,4 km/h (2 Bft) 100,00 %
13.03.2026 20:40 5,1 °C 4,4 °C 1,1 °C 95 % 1002,8 hPa 0,0 l/m² 0 min 0 W/m² 12,9 km/h (3 Bft) 97,87 %
13.03.2026 20:42 5,1 °C 4,4 °C 1,1 °C 95 % 1002,8 hPa 0,0 l/m² 0 min 0 W/m² 12,9 km/h (3 Bft) 100,00 %
13.03.2026 20:44 5,1 °C 4,4 °C 1,1 °C 95 % 1002,9 hPa 0,0 l/m² 0 min 0 W/m² 6,4 km/h (2 Bft) 100,00 %
13.03.2026 20:46 5,1 °C 4,4 °C 1,1 °C 95 % 1002,8 hPa 0,0 l/m² 0 min 0 W/m² 3,2 km/h (1 Bft) 100,00 %
13.03.2026 20:48 5,1 °C 4,4 °C 1,1 °C 95 % 1002,7 hPa 0,0 l/m² 0 min 0 W/m² 16,1 km/h (3 Bft) 97,83 %
13.03.2026 20:50 5,1 °C 4,4 °C 1,1 °C 96 % 1002,7 hPa 0,0 l/m² 0 min 0 W/m² 12,9 km/h (3 Bft) 95,74 %
13.03.2026 20:52 5,1 °C 4,4 °C 1,1 °C 96 % 1002,7 hPa 0,0 l/m² 0 min 0 W/m² 12,9 km/h (3 Bft) 100,00 %
13.03.2026 20:54 5,1 °C 4,4 °C 0,6 °C 96 % 1002,7 hPa 0,0 l/m² 0 min 0 W/m² 12,9 km/h (3 Bft) 97,87 %
13.03.2026 20:56 5,1 °C 4,4 °C 0,6 °C 96 % 1002,7 hPa 0,0 l/m² 0 min 0 W/m² 16,1 km/h (3 Bft) 95,74 %
13.03.2026 20:58 5,1 °C 4,4 °C 0,6 °C 96 % 1002,7 hPa 0,0 l/m² 0 min 0 W/m² 12,9 km/h (3 Bft) 100,00 %
13.03.2026 21:00 5,1 °C 4,4 °C 0,6 °C 96 % 1002,7 hPa 0,0 l/m² 0 min 0 W/m² 12,9 km/h (3 Bft) 100,00 %
13.03.2026 21:02 5,1 °C 4,4 °C 0,6 °C 96 % 1002,7 hPa 0,0 l/m² 0 min 0 W/m² 12,9 km/h (3 Bft) 100,00 %
13.03.2026 21:04 5,1 °C 4,4 °C 1,1 °C 96 % 1002,7 hPa 0,0 l/m² 0 min 0 W/m² 6,4 km/h (2 Bft) 100,00 %
13.03.2026 21:06 5,1 °C 4,4 °C 1,1 °C 96 % 1002,7 hPa 0,0 l/m² 0 min 0 W/m² 12,9 km/h (3 Bft) 95,74 %
13.03.2026 21:08 5,1 °C 4,4 °C 1,1 °C 96 % 1002,7 hPa 0,0 l/m² 0 min 0 W/m² 12,9 km/h (3 Bft) 100,00 %
13.03.2026 21:10 5,1 °C 4,4 °C 1,1 °C 96 % 1002,6 hPa 0,0 l/m² 0 min 0 W/m² 12,9 km/h (3 Bft) 100,00 %
13.03.2026 21:12 5,1 °C 4,4 °C 1,1 °C 96 % 1002,6 hPa 0,2 l/m² 0 min 0 W/m² 6,4 km/h (2 Bft) 100,00 %
13.03.2026 21:14 5,1 °C 4,4 °C 1,1 °C 96 % 1002,7 hPa 0,0 l/m² 0 min 0 W/m² 12,9 km/h (3 Bft) 100,00 %
13.03.2026 21:16 5,1 °C 4,4 °C 0,6 °C 96 % 1002,6 hPa 0,0 l/m² 0 min 0 W/m² 6,4 km/h (2 Bft) 100,00 %
13.03.2026 21:18 5,1 °C 4,4 °C 0,6 °C 96 % 1002,7 hPa 0,0 l/m² 0 min 0 W/m² 12,9 km/h (3 Bft) 100,00 %
13.03.2026 21:20 5,1 °C 4,4 °C 0,6 °C 96 % 1002,6 hPa 0,0 l/m² 0 min 0 W/m² 12,9 km/h (3 Bft) 100,00 %
13.03.2026 21:22 5,1 °C 4,4 °C 1,1 °C 96 % 1002,6 hPa 0,0 l/m² 0 min 0 W/m² 6,4 km/h (2 Bft) 100,00 %
13.03.2026 21:24 5,1 °C 4,4 °C 1,1 °C 96 % 1002,6 hPa 0,0 l/m² 0 min 0 W/m² 16,1 km/h (3 Bft) 95,74 %
13.03.2026 21:26 5,1 °C 4,4 °C 1,1 °C 96 % 1002,6 hPa 0,0 l/m² 0 min 0 W/m² 12,9 km/h (3 Bft) 84,48 %
13.03.2026 21:28 5,1 °C 4,4 °C 1,1 °C 96 % 1002,5 hPa 0,0 l/m² 0 min 0 W/m² 3,2 km/h (1 Bft) 94,57 %
13.03.2026 21:30 5,1 °C 4,4 °C 1,1 °C 96 % 1002,6 hPa 0,0 l/m² 0 min 0 W/m² 9,7 km/h (2 Bft) 100,00 %
13.03.2026 21:32 5,1 °C 4,4 °C 1,1 °C 96 % 1002,6 hPa 0,0 l/m² 0 min 0 W/m² 12,9 km/h (3 Bft) 97,87 %
13.03.2026 21:34 5,1 °C 4,4 °C 1,1 °C 96 % 1002,6 hPa 0,0 l/m² 0 min 0 W/m² 12,9 km/h (3 Bft) 100,00 %
13.03.2026 21:36 5,1 °C 4,4 °C 1,1 °C 96 % 1002,6 hPa 0,0 l/m² 0 min 0 W/m² 16,1 km/h (3 Bft) 97,14 %
13.03.2026 21:38 5,1 °C 4,4 °C 1,1 °C 96 % 1002,6 hPa 0,0 l/m² 0 min 0 W/m² 9,7 km/h (2 Bft) 100,00 %
13.03.2026 21:40 5,1 °C 4,4 °C 1,1 °C 96 % 1002,6 hPa 0,0 l/m² 0 min 0 W/m² 6,4 km/h (2 Bft) 97,87 %
13.03.2026 21:42 5,1 °C 4,4 °C 1,1 °C 96 % 1002,6 hPa 0,0 l/m² 0 min 0 W/m² 6,4 km/h (2 Bft) 100,00 %
13.03.2026 21:44 5,1 °C 4,4 °C 1,1 °C 96 % 1002,5 hPa 0,0 l/m² 0 min 0 W/m² 6,4 km/h (2 Bft) 97,87 %
13.03.2026 21:46 5,1 °C 4,4 °C 1,1 °C 96 % 1002,5 hPa 0,0 l/m² 0 min 0 W/m² 6,4 km/h (2 Bft) 97,87 %
13.03.2026 21:48 5,1 °C 4,4 °C 1,1 °C 96 % 1002,6 hPa 0,0 l/m² 0 min 0 W/m² 6,4 km/h (2 Bft) 98,28 %
13.03.2026 21:50 5,1 °C 4,4 °C 1,1 °C 96 % 1002,5 hPa 0,0 l/m² 0 min 0 W/m² 9,7 km/h (2 Bft) 97,14 %
13.03.2026 21:52 5,1 °C 4,4 °C 1,1 °C 96 % 1002,5 hPa 0,0 l/m² 0 min 0 W/m² 9,7 km/h (2 Bft) 91,49 %
13.03.2026 21:54 5,1 °C 4,4 °C 1,1 °C 96 % 1002,5 hPa 0,0 l/m² 0 min 0 W/m² 6,4 km/h (2 Bft) 97,87 %
13.03.2026 21:56 5,1 °C 4,4 °C 1,1 °C 96 % 1002,4 hPa 0,0 l/m² 0 min 0 W/m² 12,9 km/h (3 Bft) 93,62 %
13.03.2026 21:58 5,1 °C 4,4 °C 1,1 °C 96 % 1002,4 hPa 0,0 l/m² 0 min 0 W/m² 9,7 km/h (2 Bft) 95,74 %
13.03.2026 22:00 5,1 °C 4,4 °C 1,1 °C 96 % 1002,4 hPa 0,0 l/m² 0 min 0 W/m² 6,4 km/h (2 Bft) 97,83 %
13.03.2026 22:02 5,1 °C 4,4 °C 1,1 °C 96 % 1002,3 hPa 0,0 l/m² 0 min 0 W/m² 12,9 km/h (3 Bft) 95,74 %
13.03.2026 22:04 5,1 °C 4,4 °C 1,1 °C 96 % 1002,3 hPa 0,0 l/m² 0 min 0 W/m² 6,4 km/h (2 Bft) 97,87 %
13.03.2026 22:06 5,1 °C 4,4 °C 1,1 °C 96 % 1002,3 hPa 0,0 l/m² 0 min 0 W/m² 12,9 km/h (3 Bft) 89,83 %
13.03.2026 22:08 5,1 °C 4,4 °C 1,1 °C 96 % 1002,3 hPa 0,0 l/m² 0 min 0 W/m² 6,4 km/h (2 Bft) 93,62 %
13.03.2026 22:10 5,1 °C 4,4 °C 1,1 °C 96 % 1002,3 hPa 0,0 l/m² 0 min 0 W/m² 6,4 km/h (2 Bft) 100,00 %
13.03.2026 22:12 5,1 °C 4,4 °C 1,1 °C 96 % 1002,2 hPa 0,0 l/m² 0 min 0 W/m² 3,2 km/h (1 Bft) 89,66 %
13.03.2026 22:14 5,1 °C 4,4 °C 1,1 °C 96 % 1002,2 hPa 0,0 l/m² 0 min 0 W/m² 6,4 km/h (2 Bft) 94,29 %
13.03.2026 22:16 5,1 °C 4,4 °C 1,1 °C 96 % 1002,2 hPa 0,0 l/m² 0 min 0 W/m² 12,9 km/h (3 Bft) 95,74 %
13.03.2026 22:18 5,1 °C 4,4 °C 1,1 °C 96 % 1002,2 hPa 0,0 l/m² 0 min 0 W/m² 9,7 km/h (2 Bft) 95,74 %
13.03.2026 22:20 5,1 °C 4,4 °C 1,1 °C 96 % 1002,2 hPa 0,0 l/m² 0 min 0 W/m² 3,2 km/h (1 Bft) 95,74 %
13.03.2026 22:22 5,1 °C 4,4 °C 1,1 °C 96 % 1002,2 hPa 0,0 l/m² 0 min 0 W/m² 3,2 km/h (1 Bft) 96,55 %
13.03.2026 22:24 5,1 °C 4,4 °C 1,1 °C 96 % 1002,1 hPa 0,0 l/m² 0 min 0 W/m² 12,9 km/h (3 Bft) 91,43 %
13.03.2026 22:26 5,1 °C 4,4 °C 1,1 °C 96 % 1002,1 hPa 0,0 l/m² 0 min 0 W/m² 6,4 km/h (2 Bft) 95,74 %
13.03.2026 22:28 5,1 °C 4,4 °C 1,1 °C 96 % 1002,1 hPa 0,2 l/m² 0 min 0 W/m² 6,4 km/h (2 Bft) 93,22 %
13.03.2026 22:30 5,1 °C 4,4 °C 1,1 °C 96 % 1002,1 hPa 0,0 l/m² 0 min 0 W/m² 6,4 km/h (2 Bft) 95,74 %
13.03.2026 22:32 5,1 °C 4,4 °C 1,1 °C 96 % 1002,1 hPa 0,0 l/m² 0 min 0 W/m² 12,9 km/h (3 Bft) 94,29 %
13.03.2026 22:34 5,1 °C 4,4 °C 1,1 °C 96 % 1002,1 hPa 0,0 l/m² 0 min 0 W/m² 6,4 km/h (2 Bft) 95,65 %
13.03.2026 22:36 5,1 °C 4,4 °C 1,1 °C 96 % 1002,1 hPa 0,0 l/m² 0 min 0 W/m² 6,4 km/h (2 Bft) 96,61 %
13.03.2026 22:38 5,1 °C 4,4 °C 1,1 °C 96 % 1002,1 hPa 0,0 l/m² 0 min 0 W/m² 9,7 km/h (2 Bft) 93,62 %
13.03.2026 22:40 5,1 °C 4,4 °C 1,1 °C 96 % 1002,1 hPa 0,0 l/m² 0 min 0 W/m² 6,4 km/h (2 Bft) 97,14 %
13.03.2026 22:42 5,1 °C 4,4 °C 1,1 °C 96 % 1002,1 hPa 0,0 l/m² 0 min 0 W/m² 6,4 km/h (2 Bft) 93,22 %
13.03.2026 22:44 5,1 °C 4,4 °C 1,1 °C 96 % 1002,1 hPa 0,0 l/m² 0 min 0 W/m² 9,7 km/h (2 Bft) 100,00 %
13.03.2026 22:46 5,1 °C 4,4 °C 1,1 °C 96 % 1002,1 hPa 0,0 l/m² 0 min 0 W/m² 9,7 km/h (2 Bft) 95,65 %
13.03.2026 22:48 5,1 °C 4,4 °C 1,1 °C 96 % 1002,1 hPa 0,0 l/m² 0 min 0 W/m² 3,2 km/h (1 Bft) 97,87 %
13.03.2026 22:50 5,1 °C 4,4 °C 1,1 °C 96 % 1002,1 hPa 0,2 l/m² 0 min 0 W/m² 6,4 km/h (2 Bft) 97,87 %
13.03.2026 22:52 5,1 °C 4,4 °C 1,1 °C 96 % 1002,1 hPa 0,0 l/m² 0 min 0 W/m² 6,4 km/h (2 Bft) 97,87 %
13.03.2026 22:54 5,1 °C 4,4 °C 1,1 °C 96 % 1002,1 hPa 0,0 l/m² 0 min 0 W/m² 6,4 km/h (2 Bft) 95,74 %
13.03.2026 22:56 5,1 °C 4,4 °C 1,1 °C 96 % 1002,2 hPa 0,0 l/m² 0 min 0 W/m² 6,4 km/h (2 Bft) 97,87 %
13.03.2026 22:58 5,1 °C 4,4 °C 1,1 °C 96 % 1002,1 hPa 0,0 l/m² 0 min 0 W/m² 6,4 km/h (2 Bft) 97,83 %
13.03.2026 23:00 5,1 °C 4,4 °C 1,1 °C 96 % 1002,1 hPa 0,0 l/m² 0 min 0 W/m² 12,9 km/h (3 Bft) 100,00 %
13.03.2026 23:02 5,1 °C 4,4 °C 1,1 °C 96 % 1002,1 hPa 0,0 l/m² 0 min 0 W/m² 9,7 km/h (2 Bft) 95,74 %
13.03.2026 23:04 5,1 °C 4,4 °C 1,1 °C 96 % 1002,1 hPa 0,0 l/m² 0 min 0 W/m² 6,4 km/h (2 Bft) 100,00 %
13.03.2026 23:06 5,1 °C 4,4 °C 1,1 °C 96 % 1002,1 hPa 0,0 l/m² 0 min 0 W/m² 3,2 km/h (1 Bft) 96,61 %
13.03.2026 23:08 5,1 °C 4,4 °C 1,1 °C 96 % 1002,1 hPa 0,0 l/m² 0 min 0 W/m² 6,4 km/h (2 Bft) 100,00 %
13.03.2026 23:10 5,0 °C 4,4 °C 1,1 °C 96 % 1002,0 hPa 0,0 l/m² 0 min 0 W/m² 6,4 km/h (2 Bft) 100,00 %
13.03.2026 23:12 5,0 °C 4,4 °C 1,1 °C 96 % 1002,0 hPa 0,0 l/m² 0 min 0 W/m² 9,7 km/h (2 Bft) 100,00 %
13.03.2026 23:14 5,0 °C 4,4 °C 1,1 °C 96 % 1002,0 hPa 0,0 l/m² 0 min 0 W/m² 6,4 km/h (2 Bft) 100,00 %
13.03.2026 23:16 5,0 °C 4,4 °C 0,6 °C 96 % 1002,0 hPa 0,0 l/m² 0 min 0 W/m² 6,4 km/h (2 Bft) 100,00 %
13.03.2026 23:18 5,0 °C 4,4 °C 0,6 °C 96 % 1002,0 hPa 0,0 l/m² 0 min 0 W/m² 6,4 km/h (2 Bft) 100,00 %
13.03.2026 23:20 5,0 °C 4,4 °C 0,6 °C 96 % 1001,9 hPa 0,0 l/m² 0 min 0 W/m² 6,4 km/h (2 Bft) 100,00 %
13.03.2026 23:22 5,0 °C 4,4 °C 1,1 °C 96 % 1001,9 hPa 0,0 l/m² 0 min 0 W/m² 6,4 km/h (2 Bft) 100,00 %
13.03.2026 23:24 5,0 °C 4,4 °C 1,1 °C 96 % 1001,9 hPa 0,0 l/m² 0 min 0 W/m² 6,4 km/h (2 Bft) 97,87 %
13.03.2026 23:26 5,0 °C 4,4 °C 1,1 °C 96 % 1001,8 hPa 0,2 l/m² 0 min 0 W/m² 6,4 km/h (2 Bft) 100,00 %
13.03.2026 23:28 4,9 °C 4,4 °C 1,1 °C 96 % 1001,8 hPa 0,0 l/m² 0 min 0 W/m² 3,2 km/h (1 Bft) 97,87 %
13.03.2026 23:30 4,9 °C 4,4 °C 1,1 °C 96 % 1001,8 hPa 0,0 l/m² 0 min 0 W/m² 6,4 km/h (2 Bft) 97,87 %
13.03.2026 23:32 4,9 °C 4,4 °C 1,1 °C 96 % 1001,7 hPa 0,0 l/m² 0 min 0 W/m² 6,4 km/h (2 Bft) 95,65 %
13.03.2026 23:34 4,9 °C 4,4 °C 0,6 °C 96 % 1001,7 hPa 0,0 l/m² 0 min 0 W/m² 6,4 km/h (2 Bft) 95,74 %
13.03.2026 23:36 4,9 °C 4,4 °C 0,6 °C 96 % 1001,7 hPa 0,0 l/m² 0 min 0 W/m² 6,4 km/h (2 Bft) 93,62 %
13.03.2026 23:38 4,9 °C 4,4 °C 0,6 °C 96 % 1001,7 hPa 0,0 l/m² 0 min 0 W/m² 6,4 km/h (2 Bft) 95,74 %
13.03.2026 23:40 4,9 °C 4,4 °C 1,1 °C 96 % 1001,7 hPa 0,0 l/m² 0 min 0 W/m² 6,4 km/h (2 Bft) 97,87 %
13.03.2026 23:42 4,9 °C 3,9 °C 0,6 °C 96 % 1001,7 hPa 0,0 l/m² 0 min 0 W/m² 9,7 km/h (2 Bft) 97,87 %
13.03.2026 23:44 4,9 °C 3,9 °C 0,6 °C 96 % 1001,6 hPa 0,0 l/m² 0 min 0 W/m² 9,7 km/h (2 Bft) 97,83 %
13.03.2026 23:46 4,9 °C 3,9 °C 0,6 °C 96 % 1001,6 hPa 0,0 l/m² 0 min 0 W/m² 9,7 km/h (2 Bft) 97,87 %
13.03.2026 23:48 4,9 °C 3,9 °C 0,6 °C 96 % 1001,5 hPa 0,0 l/m² 0 min 0 W/m² 6,4 km/h (2 Bft) 97,87 %
13.03.2026 23:50 4,8 °C 3,9 °C 0,6 °C 96 % 1001,5 hPa 0,0 l/m² 0 min 0 W/m² 12,9 km/h (3 Bft) 97,87 %
13.03.2026 23:52 4,8 °C 3,9 °C 0,6 °C 96 % 1001,5 hPa 0,2 l/m² 0 min 0 W/m² 6,4 km/h (2 Bft) 97,87 %
13.03.2026 23:54 4,8 °C 3,9 °C 0,6 °C 96 % 1001,5 hPa 0,0 l/m² 0 min 0 W/m² 6,4 km/h (2 Bft) 97,87 %
13.03.2026 23:56 4,8 °C 3,9 °C 0,6 °C 96 % 1001,5 hPa 0,0 l/m² 0 min 0 W/m² 6,4 km/h (2 Bft) 97,83 %
13.03.2026 23:58 4,8 °C 3,9 °C 0,6 °C 96 % 1001,5 hPa 0,0 l/m² 0 min 0 W/m² 6,4 km/h (2 Bft) 97,87 %
_ Min-Zeit 23:50 23:42 20:54 00:44 23:48 - - - 18:32 01:16
Minimum _ 4,8 °C 3,9 °C 0,6 °C 75 % 1001,5 hPa - - - 0,0 km/h (0 Bft) 53,19 %
_ Max-Zeit 09:42 08:58 09:24 14:30 00:00 13:24 07:14 10:26 07:50 00:12
Maximum _ 11,7 °C 11,1 °C 7,2 °C 96 % 1014,0 hPa 1,0 l/m² 2 min 184 W/m² 64,4 km/h
O-NO (8 Bft)
100,00 %
Durchschnitt _ 8,2 °C 7,4 °C 3,7 °C 88 % 1006,0 hPa #8,6 l/m² #8 min. 71 W/m² 17,9 km/h (3 Bft) 97,10 %
© 2026 W. Hausmann